CW3318 Weather Reports


Display with metric or nautical units.
time (UTC)temp
F
wind
direction
speed
MPH
gust
MPH
rain 1hr
in
rain 24hr
in
rain mn
in
humidity
%
barometer
mb
20260507203119 78 35 4.0 11.0 0.00 0.00 0.00 23 1010.4
20260507203021 78 338 6.0 11.0 0.00 0.00 0.00 24 1010.3
20260507202926 78 15 5.0 18.0 0.00 0.00 0.00 24 1010.3
20260507202822 78 331 5.0 18.0 0.00 0.00 0.00 24 1010.3
20260507202722 78 15 5.0 18.0 0.00 0.00 0.00 23 1010.4
20260507202625 79 51 4.0 18.0 0.00 0.00 0.00 22 1010.4
20260507202522 79 203 5.0 18.0 0.00 0.00 0.00 22 1010.4
20260507202427 79 319 5.0 18.0 0.00 0.00 0.00 22 1010.4
20260507202351 79 337 5.0 18.0 0.00 0.00 0.00 23 1010.3
20260507202301 79 355 8.0 18.0 0.00 0.00 0.00 22 1010.3
20260507202135 79 326 9.0 18.0 0.00 0.00 0.00 22 1010.3
20260507202017 79 262 4.0 12.0 0.00 0.00 0.00 21 1010.4
20260507201915 79 250 2.0 11.0 0.00 0.00 0.00 22 1010.4
20260507201842 79 285 4.0 11.0 0.00 0.00 0.00 21 1010.4
20260507201720 79 271 5.0 11.0 0.00 0.00 0.00 21 1010.4
20260507201624 79 292 5.0 12.0 0.00 0.00 0.00 20 1010.4
20260507201519 79 285 6.0 12.0 0.00 0.00 0.00 21 1010.5
20260507201446 79 269 7.0 12.0 0.00 0.00 0.00 21 1010.5
20260507201334 79 300 8.0 12.0 0.00 0.00 0.00 21 1010.5
20260507201301 79 273 8.0 12.0 0.00 0.00 0.00 21 1010.5
20260507201116 79 318 6.0 12.0 0.00 0.00 0.00 21 1010.5
20260507201033 79 311 5.0 12.0 0.00 0.00 0.00 21 1010.5
20260507200940 79 311 6.0 12.0 0.00 0.00 0.00 20 1010.6
20260507200818 79 266 8.0 12.0 0.00 0.00 0.00 21 1010.6
20260507200747 78 250 7.0 12.0 0.00 0.00 0.00 21 1010.6
20260507200625 78 276 5.0 11.0 0.00 0.00 0.00 20 1010.6
20260507200521 78 215 4.0 11.0 0.00 0.00 0.00 21 1010.6
20260507200448 78 298 3.0 11.0 0.00 0.00 0.00 23 1010.6
20260507200331 78 356 4.0 11.0 0.00 0.00 0.00 24 1010.6
20260507200228 78 325 5.0 11.0 0.00 0.00 0.00 23 1010.7
20260507200135 78 308 5.0 11.0 0.00 0.00 0.00 23 1010.6
20260507200030 78 311 5.0 11.0 0.00 0.00 0.00 23 1010.6
20260507195941 78 312 6.0 11.0 0.00 0.00 0.00 23 1010.6
20260507195818 78 298 7.0 11.0 0.00 0.00 0.00 22 1010.7
20260507195737 77 262 7.0 11.0 0.00 0.00 0.00 22 1010.7
20260507195622 77 254 6.0 9.0 0.00 0.00 0.00 22 1010.7
20260507195519 76 258 6.0 10.0 0.00 0.00 0.00 23 1010.7
20260507195425 76 267 5.0 10.0 0.00 0.00 0.00 23 1010.7
20260507195321 76 242 3.0 12.0 0.00 0.00 0.00 24 1010.7
20260507195231 76 63 2.0 12.0 0.00 0.00 0.00 27 1010.7
20260507195126 75 38 3.0 12.0 0.00 0.00 0.00 27 1010.7
20260507195032 75 38 4.0 12.0 0.00 0.00 0.00 27 1010.7
20260507194949 75 27 5.0 12.0 0.00 0.00 0.00 27 1010.7
20260507194834 75 5 5.0 12.0 0.00 0.00 0.00 27 1010.7
20260507194800 75 327 5.0 12.0 0.00 0.00 0.00 28 1010.7
20260507194657 75 5 6.0 12.0 0.00 0.00 0.00 27 1010.7
20260507194523 75 21 4.0 12.0 0.00 0.00 0.00 27 1010.8
20260507194423 75 163 2.0 8.0 0.00 0.00 0.00 27 1010.7
20260507194320 75 163 1.0 8.0 0.00 0.00 0.00 26 1010.8
20260507194227 75 175 1.0 8.0 0.00 0.00 0.00 27 1010.8
20260507194123 75 175 1.0 8.0 0.00 0.00 0.00 27 1010.8
20260507194029 75 174 2.0 8.0 0.00 0.00 0.00 26 1010.8
20260507193925 75 174 4.0 9.0 0.00 0.00 0.00 26 1010.7
20260507193825 75 149 3.0 9.0 0.00 0.00 0.00 26 1010.8
20260507193751 75 90 1.0 9.0 0.00 0.00 0.00 26 1010.8
20260507193637 75 339 2.0 9.0 0.00 0.00 0.00 27 1010.8
20260507193532 75 333 3.0 9.0 0.00 0.00 0.00 26 1010.8
20260507193429 75 332 5.0 9.0 0.00 0.00 0.00 26 1010.8
20260507193336 75 284 5.0 9.0 0.00 0.00 0.00 27 1010.9
20260507193243 75 294 6.0 9.0 0.00 0.00 0.00 26 1010.9
20260507193138 75 325 6.0 9.0 0.00 0.00 0.00 27 1010.9
20260507193018 75 29 6.0 9.0 0.00 0.00 0.00 28 1010.9
20260507192924 75 5 5.0 8.0 0.00 0.00 0.00 28 1010.8
20260507192850 75 28 3.0 8.0 0.00 0.00 0.00 28 1010.8
20260507192726 75 140 2.0 8.0 0.00 0.00 0.00 27 1010.9
20260507192635 75 142 2.0 8.0 0.00 0.00 0.00 27 1010.9
20260507192527 74 141 3.0 8.0 0.00 0.00 0.00 28 1010.9
20260507192453 74 137 3.0 8.0 0.00 0.00 0.00 30 1010.9
20260507192358 74 50 2.0 5.0 0.00 0.00 0.00 30 1010.9
20260507192240 74 46 2.0 5.0 0.00 0.00 0.00 29 1011.0
20260507192124 74 46 3.0 5.0 0.00 0.00 0.00 29 1011.0
20260507192042 74 40 3.0 9.0 0.00 0.00 0.00 29 1011.0
20260507191928 74 36 2.0 9.0 0.00 0.00 0.00 30 1011.0
20260507191832 74 86 1.0 9.0 0.00 0.00 0.00 29 1011.0
20260507191729 74 79 1.0 9.0 0.00 0.00 0.00 29 1011.1
20260507191625 74 79 2.0 10.0 0.00 0.00 0.00 30 1011.1
20260507191516 74 79 3.0 10.0 0.00 0.00 0.00 30 1011.1
20260507191433 74 49 4.0 10.0 0.00 0.00 0.00 30 1011.1
20260507191338 74 34 4.0 10.0 0.00 0.00 0.00 29 1011.1
20260507191245 74 33 5.0 10.0 0.00 0.00 0.00 30 1011.1
20260507191119 74 77 5.0 10.0 0.00 0.00 0.00 31 1011.2
20260507191016 74 40 4.0 10.0 0.00 0.00 0.00 30 1011.2
20260507190941 74 60 3.0 10.0 0.00 0.00 0.00 30 1011.2
20260507190818 74 40 4.0 10.0 0.00 0.00 0.00 30 1011.2
20260507190728 74 319 4.0 10.0 0.00 0.00 0.00 29 1011.2
20260507190657 74 319 5.0 10.0 0.00 0.00 0.00 29 1011.2
20260507190530 74 348 4.0 10.0 0.00 0.00 0.00 30 1011.2
20260507190437 74 359 5.0 10.0 0.00 0.00 0.00 32 1011.2
20260507190333 74 23 5.0 10.0 0.00 0.00 0.00 32 1011.2
20260507190239 74 46 5.0 10.0 0.00 0.00 0.00 32 1011.2
20260507190145 74 101 5.0 10.0 0.00 0.00 0.00 31 1011.2
20260507190020 74 100 5.0 10.0 0.00 0.00 0.00 33 1011.2
20260507185921 73 74 3.0 9.0 0.00 0.00 0.00 33 1011.2
20260507185848 73 77 3.0 9.0 0.00 0.00 0.00 34 1011.2
20260507185730 73 56 3.0 9.0 0.00 0.00 0.00 33 1011.2
20260507185629 73 15 3.0 5.0 0.00 0.00 0.00 33 1011.3
20260507185530 73 27 2.0 5.0 0.00 0.00 0.00 33 1011.2
20260507185435 73 40 2.0 4.0 0.00 0.00 0.00 32 1011.2
20260507185333 73 40 3.0 4.0 0.00 0.00 0.00 33 1011.3
20260507185232 73 37 3.0 4.0 0.00 0.00 0.00 32 1011.3
20260507185141 73 23 2.0 4.0 0.00 0.00 0.00 33 1011.3
20260507185017 73 23 2.0 4.0 0.00 0.00 0.00 32 1011.3
20260507184924 73 22 3.0 4.0 0.00 0.00 0.00 32 1011.3
20260507184818 73 19 2.0 4.0 0.00 0.00 0.00 33 1011.3
20260507184725 72 19 3.0 7.0 0.00 0.00 0.00 33 1011.3
20260507184621 72 19 2.0 7.0 0.00 0.00 0.00 34 1011.3
20260507184528 72 19 2.0 7.0 0.00 0.00 0.00 33 1011.3
20260507184428 72 115 3.0 7.0 0.00 0.00 0.00 33 1011.4
20260507184335 72 114 3.0 8.0 0.00 0.00 0.00 33 1011.3
20260507184232 72 106 2.0 8.0 0.00 0.00 0.00 34 1011.3
20260507184130 72 104 2.0 8.0 0.00 0.00 0.00 34 1011.4
20260507184034 72 104 3.0 8.0 0.00 0.00 0.00 33 1011.3
20260507183932 72 99 4.0 8.0 0.00 0.00 0.00 33 1011.4
20260507183838 72 106 3.0 8.0 0.00 0.00 0.00 34 1011.4
20260507183742 72 26 2.0 8.0 0.00 0.00 0.00 33 1011.4
20260507183617 72 25 3.0 8.0 0.00 0.00 0.00 33 1011.4
20260507183522 72 1 4.0 8.0 0.00 0.00 0.00 33 1011.4
20260507183420 72 29 2.0 9.0 0.00 0.00 0.00 34 1011.4
20260507183327 72 23 2.0 9.0 0.00 0.00 0.00 34 1011.4
20260507183222 72 24 2.0 10.0 0.00 0.00 0.00 34 1011.4
20260507183134 72 23 2.0 10.0 0.00 0.00 0.00 34 1011.4
20260507183029 72 23 2.0 10.0 0.00 0.00 0.00 34 1011.5
20260507182935 72 21 2.0 10.0 0.00 0.00 0.00 34 1011.5
20260507182832 72 22 3.0 10.0 0.00 0.00 0.00 34 1011.5
20260507182740 72 5 5.0 10.0 0.00 0.00 0.00 34 1011.5
20260507182615 72 10 6.0 10.0 0.00 0.00 0.00 34 1011.5
20260507182540 72 31 6.0 10.0 0.00 0.00 0.00 35 1011.5
20260507182419 72 38 5.0 10.0 0.00 0.00 0.00 34 1011.4
20260507182345 72 10 5.0 10.0 0.00 0.00 0.00 34 1011.4
20260507182224 72 10 4.0 10.0 0.00 0.00 0.00 34 1011.5
20260507182117 72 39 2.0 10.0 0.00 0.00 0.00 36 1011.5
20260507182024 72 46 2.0 10.0 0.00 0.00 0.00 35 1011.5
20260507181948 72 46 3.0 10.0 0.00 0.00 0.00 35 1011.5
20260507181844 72 46 5.0 10.0 0.00 0.00 0.00 35 1011.6
20260507181731 72 25 7.0 10.0 0.00 0.00 0.00 36 1011.6
20260507181647 72 37 7.0 10.0 0.00 0.00 0.00 36 1011.5
20260507181535 72 350 6.0 10.0 0.00 0.00 0.00 36 1011.5
20260507181439 72 15 5.0 10.0 0.00 0.00 0.00 36 1011.5
20260507181336 72 15 5.0 10.0 0.00 0.00 0.00 35 1011.4
20260507181222 72 348 5.0 10.0 0.00 0.00 0.00 36 1011.5
20260507181118 71 27 4.0 9.0 0.00 0.00 0.00 37 1011.5
20260507181023 71 334 3.0 9.0 0.00 0.00 0.00 37 1011.5
20260507180950 71 359 1.0 4.0 0.00 0.00 0.00 37 1011.5
20260507180822 71 329 1.0 4.0 0.00 0.00 0.00 37 1011.5
20260507180724 71 329 1.0 6.0 0.00 0.00 0.00 38 1011.6
20260507180631 71 329 1.0 6.0 0.00 0.00 0.00 39 1011.6
20260507180553 71 329 1.0 6.0 0.00 0.00 0.00 37 1011.7
20260507180430 70 329 1.0 6.0 0.00 0.00 0.00 36 1011.6
20260507180335 70 329 1.0 6.0 0.00 0.00 0.00 36 1011.7
20260507180231 70 329 2.0 6.0 0.00 0.00 0.00 36 1011.7
20260507180138 70 329 2.0 6.0 0.00 0.00 0.00 36 1011.6
20260507175942 70 31 4.0 6.0 0.00 0.00 0.00 38 1011.7
20260507175829 70 36 4.0 7.0 0.00 0.00 0.00 37 1011.7
20260507175725 70 54 3.0 6.0 0.00 0.00 0.00 38 1011.7
20260507175620 70 49 3.0 6.0 0.00 0.00 0.00 39 1011.7
20260507175526 70 90 3.0 7.0 0.00 0.00 0.00 39 1011.7
20260507175424 70 79 3.0 7.0 0.00 0.00 0.00 39 1011.7
20260507175331 70 94 3.0 7.0 0.00 0.00 0.00 38 1011.7
20260507175254 70 67 2.0 7.0 0.00 0.00 0.00 38 1011.7
20260507175115 70 222 2.0 7.0 0.00 0.00 0.00 38 1011.8
20260507175041 70 222 2.0 7.0 0.00 0.00 0.00 38 1011.8
20260507174918 70 222 2.0 7.0 0.00 0.00 0.00 39 1011.8
20260507174816 70 224 4.0 7.0 0.00 0.00 0.00 38 1011.8
20260507174723 70 224 5.0 7.0 0.00 0.00 0.00 39 1011.8
20260507174618 70 224 5.0 7.0 0.00 0.00 0.00 39 1011.8
20260507174524 69 184 4.0 6.0 0.00 0.00 0.00 39 1011.9
20260507174425 70 179 5.0 6.0 0.00 0.00 0.00 38 1011.9
20260507174332 70 184 4.0 7.0 0.00 0.00 0.00 39 1011.9
20260507174230 70 188 3.0 6.0 0.00 0.00 0.00 38 1011.9
20260507174139 70 196 4.0 6.0 0.00 0.00 0.00 38 1011.9
20260507174054 70 183 4.0 7.0 0.00 0.00 0.00 38 1011.9
20260507173940 70 184 4.0 7.0 0.00 0.00 0.00 39 1011.9
20260507173820 70 179 4.0 7.0 0.00 0.00 0.00 39 1011.9
20260507173720 70 175 3.0 7.0 0.00 0.00 0.00 40 1011.9
20260507173623 70 124 2.0 7.0 0.00 0.00 0.00 41 1011.9
20260507173520 70 136 2.0 7.0 0.00 0.00 0.00 41 1011.9
20260507173426 70 138 3.0 7.0 0.00 0.00 0.00 41 1011.9
20260507173324 69 138 4.0 10.0 0.00 0.00 0.00 42 1011.9
20260507173230 69 160 3.0 10.0 0.00 0.00 0.00 42 1011.9
20260507173133 69 21 3.0 10.0 0.00 0.00 0.00 42 1012.0
20260507173037 69 21 3.0 10.0 0.00 0.00 0.00 42 1012.0
20260507172914 69 116 2.0 10.0 0.00 0.00 0.00 43 1012.0
20260507172832 69 118 2.0 10.0 0.00 0.00 0.00 41 1012.0
20260507172740 69 118 2.0 10.0 0.00 0.00 0.00 42 1012.0
20260507172615 69 112 4.0 10.0 0.00 0.00 0.00 41 1012.0
20260507172516 69 52 5.0 10.0 0.00 0.00 0.00 42 1011.9
20260507172423 69 25 4.0 10.0 0.00 0.00 0.00 42 1012.0
20260507172320 69 88 3.0 9.0 0.00 0.00 0.00 43 1012.0
20260507172219 68 84 3.0 9.0 0.00 0.00 0.00 43 1012.0
20260507172125 68 98 3.0 9.0 0.00 0.00 0.00 42 1012.0
20260507172020 68 84 4.0 9.0 0.00 0.00 0.00 43 1012.0
20260507171926 68 48 4.0 9.0 0.00 0.00 0.00 43 1012.0
20260507171828 68 145 4.0 7.0 0.00 0.00 0.00 43 1012.0
20260507171735 68 55 3.0 6.0 0.00 0.00 0.00 43 1012.0
20260507171653 68 72 2.0 6.0 0.00 0.00 0.00 43 1011.9
20260507171536 68 86 1.0 6.0 0.00 0.00 0.00 42 1011.9
20260507171414 68 47 2.0 6.0 0.00 0.00 0.00 43 1012.0
20260507171340 68 47 3.0 6.0 0.00 0.00 0.00 43 1012.0
20260507171221 68 42 3.0 6.0 0.00 0.00 0.00 44 1012.0
20260507171117 67 39 3.0 6.0 0.00 0.00 0.00 43 1012.0
20260507171015 67 88 3.0 7.0 0.00 0.00 0.00 44 1012.0
20260507170921 67 78 2.0 8.0 0.00 0.00 0.00 43 1012.0
20260507170817 67 5 2.0 8.0 0.00 0.00 0.00 42 1012.0
20260507170725 67 20 2.0 8.0 0.00 0.00 0.00 42 1012.0
20260507170619 67 15 1.0 8.0 0.00 0.00 0.00 42 1011.9
20260507170548 67 15 1.0 8.0 0.00 0.00 0.00 42 1011.9
20260507170422 67 15 2.0 8.0 0.00 0.00 0.00 43 1012.1
20260507170328 67 15 4.0 8.0 0.00 0.00 0.00 44 1012.1
20260507170225 67 15 4.0 8.0 0.00 0.00 0.00 44 1012.1
20260507170131 67 352 4.0 8.0 0.00 0.00 0.00 44 1012.1
20260507170056 67 345 3.0 6.0 0.00 0.00 0.00 45 1012.1
20260507165930 67 327 4.0 6.0 0.00 0.00 0.00 45 1012.0
20260507165854 66 327 4.0 8.0 0.00 0.00 0.00 46 1012.1
20260507165731 66 44 3.0 8.0 0.00 0.00 0.00 46 1012.1
20260507165637 66 100 3.0 8.0 0.00 0.00 0.00 47 1012.1
20260507165554 66 102 3.0 8.0 0.00 0.00 0.00 45 1012.0
20260507165440 66 42 2.0 8.0 0.00 0.00 0.00 44 1012.1
20260507165317 66 341 2.0 8.0 0.00 0.00 0.00 43 1012.1
20260507165216 66 341 4.0 8.0 0.00 0.00 0.00 43 1012.1
20260507165120 66 341 5.0 8.0 0.00 0.00 0.00 44 1012.1
20260507165022 66 322 4.0 8.0 0.00 0.00 0.00 47 1012.1
20260507164918 66 1 4.0 8.0 0.00 0.00 0.00 46 1012.1
20260507164824 66 10 4.0 8.0 0.00 0.00 0.00 45 1012.1
20260507164721 65 326 2.0 5.0 0.00 0.00 0.00 45 1012.1
20260507164628 65 324 1.0 3.0 0.00 0.00 0.00 45 1012.1
20260507164525 65 323 1.0 3.0 0.00 0.00 0.00 45 1012.1
20260507164436 65 323 1.0 3.0 0.00 0.00 0.00 44 1012.1
20260507164330 65 323 2.0 3.0 0.00 0.00 0.00 44 1012.1
20260507164227 65 323 1.0 3.0 0.00 0.00 0.00 45 1012.1
20260507164136 65 323 1.0 3.0 0.00 0.00 0.00 45 1012.1
20260507164032 65 323 1.0 8.0 0.00 0.00 0.00 46 1012.1
20260507163939 65 323 1.0 8.0 0.00 0.00 0.00 46 1012.1
20260507163820 65 323 1.0 8.0 0.00 0.00 0.00 45 1012.1
20260507163718 64 323 1.0 8.0 0.00 0.00 0.00 46 1012.2
20260507163621 64 323 2.0 8.0 0.00 0.00 0.00 46 1012.2
20260507163518 64 323 2.0 8.0 0.00 0.00 0.00 46 1012.2
20260507163416 64 322 2.0 8.0 0.00 0.00 0.00 46 1012.2
20260507163323 64 322 3.0 8.0 0.00 0.00 0.00 46 1012.2
20260507163220 64 323 3.0 8.0 0.00 0.00 0.00 47 1012.2
20260507163150 64 339 1.0 6.0 0.00 0.00 0.00 47 1012.2
20260507163026 64 350 0.0 6.0 0.00 0.00 0.00 49 1012.2
20260507162931 64 350 0.0 6.0 0.00 0.00 0.00 51 1012.2
20260507162829 64 350 1.0 6.0 0.00 0.00 0.00 49 1012.2
20260507162738 64 350 2.0 6.0 0.00 0.00 0.00 49 1012.2
20260507162614 64 348 4.0 6.0 0.00 0.00 0.00 50 1012.2
20260507162516 64 348 4.0 6.0 0.00 0.00 0.00 50 1012.2
20260507162442 64 348 4.0 6.0 0.00 0.00 0.00 50 1012.2
20260507162338 64 308 3.0 7.0 0.00 0.00 0.00 51 1012.2
20260507162225 64 307 3.0 7.0 0.00 0.00 0.00 51 1012.2
20260507162140 64 307 3.0 7.0 0.00 0.00 0.00 52 1012.2
20260507162025 64 306 4.0 7.0 0.00 0.00 0.00 52 1012.2
20260507161923 63 279 3.0 7.0 0.00 0.00 0.00 53 1012.2
20260507161828 63 267 2.0 7.0 0.00 0.00 0.00 53 1012.2
20260507161729 63 268 0.0 5.0 0.00 0.00 0.00 53 1012.1
20260507161636 63 304 1.0 5.0 0.00 0.00 0.00 53 1012.2
20260507161532 63 304 1.0 5.0 0.00 0.00 0.00 54 1012.2
20260507161429 63 304 1.0 5.0 0.00 0.00 0.00 55 1012.2
20260507161334 63 304 1.0 5.0 0.00 0.00 0.00 53 1012.1
20260507161231 63 303 2.0 5.0 0.00 0.00 0.00 53 1012.2
20260507161143 63 304 3.0 5.0 0.00 0.00 0.00 52 1012.2
20260507161019 63 313 3.0 5.0 0.00 0.00 0.00 53 1012.2
20260507160916 62 314 1.0 4.0 0.00 0.00 0.00 53 1012.2
20260507160822 62 314 0.0 4.0 0.00 0.00 0.00 53 1012.2
20260507160722 62 314 0.0 6.0 0.00 0.00 0.00 53 1012.2
20260507160647 62 314 1.0 6.0 0.00 0.00 0.00 54 1012.2
20260507160521 62 314 3.0 6.0 0.00 0.00 0.00 54 1012.3
20260507160431 62 314 2.0 6.0 0.00 0.00 0.00 54 1012.3
20260507160327 62 316 1.0 6.0 0.00 0.00 0.00 55 1012.3
20260507160232 62 316 0.0 6.0 0.00 0.00 0.00 55 1012.3
20260507160131 62 23 1.0 6.0 0.00 0.00 0.00 56 1012.3
20260507160035 62 23 2.0 6.0 0.00 0.00 0.00 55 1012.3
20260507155948 62 23 3.0 6.0 0.00 0.00 0.00 56 1012.4
20260507155831 62 24 2.0 7.0 0.00 0.00 0.00 56 1012.4
20260507155759 61 343 1.0 4.0 0.00 0.00 0.00 56 1012.4
20260507155615 61 343 0.0 4.0 0.00 0.00 0.00 56 1012.4
20260507155541 61 343 1.0 4.0 0.00 0.00 0.00 56 1012.4
20260507155419 61 343 1.0 4.0 0.00 0.00 0.00 56 1012.4
20260507155316 61 343 1.0 4.0 0.00 0.00 0.00 57 1012.4
20260507155224 61 343 1.0 4.0 0.00 0.00 0.00 57 1012.4
20260507155120 61 343 2.0 4.0 0.00 0.00 0.00 57 1012.4
20260507155047 61 343 2.0 5.0 0.00 0.00 0.00 57 1012.4
20260507154928 61 342 2.0 6.0 0.00 0.00 0.00 58 1012.4
20260507154855 61 341 1.0 6.0 0.00 0.00 0.00 57 1012.5
20260507154759 60 341 1.0 6.0 0.00 0.00 0.00 58 1012.5
20260507154635 60 341 2.0 6.0 0.00 0.00 0.00 58 1012.5
20260507154540 60 341 2.0 6.0 0.00 0.00 0.00 58 1012.5
20260507154417 60 341 2.0 6.0 0.00 0.00 0.00 59 1012.5
20260507154343 60 341 2.0 6.0 0.00 0.00 0.00 60 1012.5
20260507154220 60 342 3.0 6.0 0.00 0.00 0.00 60 1012.5
20260507154132 60 342 3.0 6.0 0.00 0.00 0.00 61 1012.5
20260507154028 60 340 1.0 6.0 0.00 0.00 0.00 61 1012.5
20260507153954 59 327 0.0 4.0 0.00 0.00 0.00 61 1012.5
20260507153831 59 326 0.0 4.0 0.00 0.00 0.00 61 1012.5
20260507153737 59 326 0.0 4.0 0.00 0.00 0.00 61 1012.5
20260507153634 59 326 0.0 4.0 0.00 0.00 0.00 61 1012.5
20260507153539 59 326 0.0 4.0 0.00 0.00 0.00 61 1012.5
20260507153421 59 326 1.0 4.0 0.00 0.00 0.00 61 1012.5
20260507153317 59 326 2.0 4.0 0.00 0.00 0.00 62 1012.5
20260507153221 58 326 3.0 4.0 0.00 0.00 0.00 62 1012.5
20260507153115 58 325 2.0 4.0 0.00 0.00 0.00 62 1012.5
20260507153041 58 325 2.0 4.0 0.00 0.00 0.00 62 1012.5
20260507152918 58 325 2.0 4.0 0.00 0.00 0.00 62 1012.5
20260507152817 58 325 2.0 4.0 0.00 0.00 0.00 62 1012.6
20260507152726 58 325 1.0 4.0 0.00 0.00 0.00 62 1012.6
20260507152622 58 325 1.0 4.0 0.00 0.00 0.00 63 1012.5
20260507152528 58 325 1.0 4.0 0.00 0.00 0.00 63 1012.5
20260507152445 58 325 3.0 4.0 0.00 0.00 0.00 63 1012.6
20260507152331 58 325 2.0 4.0 0.00 0.00 0.00 64 1012.6
20260507152229 57 324 1.0 3.0 0.00 0.00 0.00 64 1012.6
20260507152138 57 324 1.0 4.0 0.00 0.00 0.00 64 1012.5
20260507152033 57 324 1.0 4.0 0.00 0.00 0.00 64 1012.5
20260507151940 57 324 2.0 4.0 0.00 0.00 0.00 65 1012.6
20260507151817 57 324 2.0 4.0 0.00 0.00 0.00 66 1012.6
20260507151747 57 324 1.0 4.0 0.00 0.00 0.00 66 1012.6
20260507151621 57 324 0.0 4.0 0.00 0.00 0.00 66 1012.6
20260507151546 57 324 0.0 4.0 0.00 0.00 0.00 66 1012.6
20260507151429 56 324 1.0 4.0 0.00 0.00 0.00 66 1012.6
20260507151355 56 324 2.0 4.0 0.00 0.00 0.00 67 1012.6
20260507151215 56 324 1.0 4.0 0.00 0.00 0.00 67 1012.6
20260507151143 56 324 0.0 4.0 0.00 0.00 0.00 67 1012.6
20260507151017 56 324 0.0 4.0 0.00 0.00 0.00 67 1012.6
20260507150914 56 324 1.0 4.0 0.00 0.00 0.00 68 1012.6
20260507150840 56 324 2.0 4.0 0.00 0.00 0.00 68 1012.6
20260507150718 56 324 2.0 4.0 0.00 0.00 0.00 68 1012.6
20260507150618 55 323 2.0 4.0 0.00 0.00 0.00 68 1012.5
20260507150525 55 323 2.0 4.0 0.00 0.00 0.00 68 1012.6
20260507150423 55 322 2.0 4.0 0.00 0.00 0.00 68 1012.5
20260507150329 55 320 2.0 4.0 0.00 0.00 0.00 68 1012.5
20260507150227 55 320 2.0 4.0 0.00 0.00 0.00 68 1012.6
20260507150123 55 319 2.0 4.0 0.00 0.00 0.00 68 1012.6
20260507150031 55 319 3.0 5.0 0.00 0.00 0.00 68 1012.6
20260507150001 55 319 3.0 5.0 0.00 0.00 0.00 68 1012.5
20260507145817 55 319 2.0 5.0 0.00 0.00 0.00 69 1012.5
20260507145716 55 319 2.0 5.0 0.00 0.00 0.00 69 1012.5
20260507145620 55 319 2.0 5.0 0.00 0.00 0.00 69 1012.5
20260507145516 55 319 1.0 5.0 0.00 0.00 0.00 69 1012.4
20260507145442 55 319 1.0 5.0 0.00 0.00 0.00 69 1012.4
20260507145320 54 319 3.0 5.0 0.00 0.00 0.00 70 1012.5
20260507145219 54 319 3.0 5.0 0.00 0.00 0.00 70 1012.5
20260507145124 54 319 2.0 5.0 0.00 0.00 0.00 70 1012.5
20260507145039 54 319 1.0 4.0 0.00 0.00 0.00 70 1012.6
20260507144921 54 310 1.0 3.0 0.00 0.00 0.00 70 1012.6
20260507144819 54 310 1.0 3.0 0.00 0.00 0.00 70 1012.6
20260507144716 54 309 1.0 3.0 0.00 0.00 0.00 70 1012.6
20260507144628 54 309 1.0 3.0 0.00 0.00 0.00 70 1012.6
20260507144519 54 309 1.0 3.0 0.00 0.00 0.00 70 1012.5
20260507144426 54 309 1.0 3.0 0.00 0.00 0.00 70 1012.5
20260507144322 54 309 2.0 3.0 0.00 0.00 0.00 70 1012.6
20260507144231 54 309 2.0 4.0 0.00 0.00 0.00 70 1012.6
20260507144124 54 309 1.0 5.0 0.00 0.00 0.00 70 1012.6
20260507144031 54 309 2.0 5.0 0.00 0.00 0.00 70 1012.6
20260507143930 54 309 2.0 5.0 0.00 0.00 0.00 70 1012.5
20260507143837 54 309 2.0 5.0 0.00 0.00 0.00 70 1012.6
20260507143755 54 309 1.0 5.0 0.00 0.00 0.00 70 1012.5
20260507143640 54 309 1.0 5.0 0.00 0.00 0.00 70 1012.5
20260507143517 54 309 3.0 5.0 0.00 0.00 0.00 70 1012.5
20260507143443 54 309 3.0 5.0 0.00 0.00 0.00 70 1012.5
20260507143318 54 309 3.0 5.0 0.00 0.00 0.00 70 1012.4
20260507143218 54 280 2.0 4.0 0.00 0.00 0.00 70 1012.5
20260507143144 54 276 1.0 4.0 0.00 0.00 0.00 70 1012.5
20260507143020 54 275 0.0 4.0 0.00 0.00 0.00 70 1012.4
20260507142918 54 275 0.0 6.0 0.00 0.00 0.00 70 1012.4
20260507142823 54 275 1.0 6.0 0.00 0.00 0.00 70 1012.5
20260507142726 54 275 1.0 6.0 0.00 0.00 0.00 71 1012.5
20260507142621 54 275 1.0 7.0 0.00 0.00 0.00 71 1012.5
20260507142548 54 275 2.0 7.0 0.00 0.00 0.00 70 1012.5
20260507142428 54 275 3.0 7.0 0.00 0.00 0.00 70 1012.4
20260507142335 54 275 2.0 7.0 0.00 0.00 0.00 70 1012.5
20260507142233 54 275 3.0 7.0 0.00 0.00 0.00 70 1012.5
20260507142139 54 275 3.0 7.0 0.00 0.00 0.00 70 1012.5
20260507142016 54 275 2.0 7.0 0.00 0.00 0.00 70 1012.4
20260507141942 54 275 2.0 7.0 0.00 0.00 0.00 70 1012.4
20260507141824 54 275 3.0 7.0 0.00 0.00 0.00 71 1012.4
20260507141730 54 275 3.0 7.0 0.00 0.00 0.00 71 1012.4
20260507141624 54 275 3.0 7.0 0.00 0.00 0.00 71 1012.4
20260507141531 54 275 3.0 7.0 0.00 0.00 0.00 70 1012.4
20260507141425 54 275 3.0 7.0 0.00 0.00 0.00 70 1012.4
20260507141331 54 275 3.0 7.0 0.00 0.00 0.00 70 1012.4
20260507141230 54 275 3.0 7.0 0.00 0.00 0.00 70 1012.3
20260507141135 54 286 3.0 7.0 0.00 0.00 0.00 70 1012.4
20260507141033 54 286 3.0 7.0 0.00 0.00 0.00 70 1012.4
20260507140939 54 286 3.0 7.0 0.00 0.00 0.00 70 1012.4
20260507140815 54 286 3.0 7.0 0.00 0.00 0.00 70 1012.3
20260507140744 54 286 4.0 7.0 0.00 0.00 0.00 70 1012.4
20260507140639 54 286 4.0 7.0 0.00 0.00 0.00 70 1012.3
20260507140525 54 287 3.0 5.0 0.00 0.00 0.00 70 1012.3
20260507140422 54 287 3.0 5.0 0.00 0.00 0.00 71 1012.3
20260507140328 54 287 2.0 5.0 0.00 0.00 0.00 71 1012.3
20260507140237 54 287 2.0 5.0 0.00 0.00 0.00 71 1012.3
20260507140135 54 287 2.0 5.0 0.00 0.00 0.00 71 1012.3
20260507140040 54 287 2.0 5.0 0.00 0.00 0.00 71 1012.2
20260507135916 54 287 2.0 6.0 0.00 0.00 0.00 71 1012.2
20260507135814 54 287 2.0 5.0 0.00 0.00 0.00 71 1012.2
20260507135742 54 287 2.0 7.0 0.00 0.00 0.00 71 1012.2
20260507135616 54 287 3.0 7.0 0.00 0.00 0.00 71 1012.2
20260507135546 54 287 2.0 10.0 0.00 0.00 0.00 71 1012.2
20260507135422 54 287 2.0 10.0 0.00 0.00 0.00 71 1012.2
20260507135329 54 287 3.0 10.0 0.00 0.00 0.00 71 1012.2
20260507135227 54 287 3.0 10.0 0.00 0.00 0.00 71 1012.2
20260507135134 54 287 3.0 10.0 0.00 0.00 0.00 71 1012.1
20260507135028 54 287 3.0 13.0 0.00 0.00 0.00 71 1012.1
20260507134955 54 287 4.0 13.0 0.00 0.00 0.00 72 1012.1
20260507134816 54 287 5.0 13.0 0.00 0.00 0.00 72 1012.1
20260507134741 54 287 6.0 13.0 0.00 0.00 0.00 72 1012.1
20260507134635 54 321 7.0 13.0 0.00 0.00 0.00 72 1012.1
20260507134531 54 300 7.0 13.0 0.00 0.00 0.00 72 1012.1
20260507134438 54 286 8.0 13.0 0.00 0.00 0.00 72 1012.1
20260507134314 54 285 8.0 13.0 0.00 0.00 0.00 72 1012.0
20260507134220 54 278 8.0 10.0 0.00 0.00 0.00 72 1012.0
20260507134118 54 266 8.0 10.0 0.00 0.00 0.00 71 1011.9
20260507134025 54 277 8.0 11.0 0.00 0.00 0.00 71 1011.9
20260507133920 54 275 7.0 11.0 0.00 0.00 0.00 71 1011.9
20260507133827 54 291 7.0 11.0 0.00 0.00 0.00 71 1011.9
20260507133724 54 296 7.0 12.0 0.00 0.00 0.00 71 1011.9
20260507133632 54 254 5.0 13.0 0.00 0.00 0.00 71 1011.9
20260507133527 54 275 5.0 13.0 0.00 0.00 0.00 71 1011.9
20260507133428 54 277 6.0 13.0 0.00 0.00 0.00 71 1011.9
20260507133334 54 271 7.0 13.0 0.00 0.00 0.00 72 1012.0
20260507133231 54 296 9.0 13.0 0.00 0.00 0.00 71 1011.9
20260507133138 54 283 9.0 13.0 0.00 0.00 0.00 71 1012.0
20260507133033 54 269 9.0 13.0 0.00 0.00 0.00 71 1012.0
20260507132939 54 277 9.0 13.0 0.00 0.00 0.00 71 1012.0
20260507132837 54 269 8.0 13.0 0.00 0.00 0.00 71 1012.0
20260507132727 54 276 7.0 13.0 0.00 0.00 0.00 71 1012.0
20260507132642 54 290 7.0 13.0 0.00 0.00 0.00 71 1011.9
20260507132526 54 271 7.0 13.0 0.00 0.00 0.00 71 1011.9
20260507132422 54 289 7.0 13.0 0.00 0.00 0.00 71 1011.9
20260507132327 54 283 7.0 13.0 0.00 0.00 0.00 71 1011.9
20260507132226 54 277 8.0 13.0 0.00 0.00 0.00 71 1011.9
20260507132123 54 273 8.0 13.0 0.00 0.00 0.00 71 1011.9
20260507132034 54 262 9.0 13.0 0.00 0.00 0.00 70 1011.9
20260507131932 54 283 7.0 13.0 0.00 0.00 0.00 70 1011.9
20260507131817 54 264 6.0 13.0 0.00 0.00 0.00 70 1011.9
20260507131743 54 273 8.0 13.0 0.00 0.00 0.00 70 1011.9
20260507131616 54 300 9.0 13.0 0.00 0.00 0.00 70 1011.9
20260507131514 54 287 8.0 13.0 0.00 0.00 0.00 70 1011.9
20260507131421 54 311 8.0 13.0 0.00 0.00 0.00 70 1011.9
20260507131322 54 287 8.0 13.0 0.00 0.00 0.00 70 1012.0
20260507131230 54 275 7.0 13.0 0.00 0.00 0.00 70 1012.0
20260507131145 54 281 5.0 9.0 0.00 0.00 0.00 70 1011.9
20260507131029 54 260 6.0 9.0 0.00 0.00 0.00 70 1011.9
20260507130927 54 278 5.0 9.0 0.00 0.00 0.00 69 1011.9
20260507130834 54 300 4.0 9.0 0.00 0.00 0.00 69 1011.9
20260507130717 55 277 4.0 10.0 0.00 0.00 0.00 69 1011.9
20260507130616 55 277 4.0 10.0 0.00 0.00 0.00 69 1011.9
20260507130533 55 277 4.0 10.0 0.00 0.00 0.00 69 1011.9
20260507130438 55 278 4.0 10.0 0.00 0.00 0.00 69 1011.9
20260507130336 55 277 6.0 10.0 0.00 0.00 0.00 69 1011.9
20260507130243 55 269 6.0 10.0 0.00 0.00 0.00 69 1011.9
20260507130119 55 262 6.0 11.0 0.00 0.00 0.00 69 1011.8
20260507130015 55 283 6.0 13.0 0.00 0.00 0.00 69 1011.8
20260507125924 55 264 7.0 13.0 0.00 0.00 0.00 69 1011.8
20260507125821 55 267 6.0 14.0 0.00 0.00 0.00 68 1011.8
20260507125728 55 262 6.0 14.0 0.00 0.00 0.00 68 1011.8
20260507125627 55 267 6.0 14.0 0.00 0.00 0.00 68 1011.8
20260507125530 55 268 7.0 14.0 0.00 0.00 0.00 68 1011.8
20260507125427 55 281 7.0 14.0 0.00 0.00 0.00 68 1011.8
20260507125333 55 276 8.0 17.0 0.00 0.00 0.00 68 1011.8
20260507125232 55 275 8.0 17.0 0.00 0.00 0.00 68 1011.8
20260507125137 55 308 7.0 17.0 0.00 0.00 0.00 68 1011.7
20260507125033 55 264 7.0 17.0 0.00 0.00 0.00 68 1011.7
20260507124940 55 268 8.0 17.0 0.00 0.00 0.00 68 1011.7
20260507124816 55 279 9.0 20.0 0.00 0.00 0.00 68 1011.6
20260507124742 55 273 9.0 20.0 0.00 0.00 0.00 67 1011.6
20260507124637 55 271 8.0 20.0 0.00 0.00 0.00 67 1011.5
20260507124526 55 269 9.0 20.0 0.00 0.00 0.00 67 1011.5
20260507124424 55 258 10.0 20.0 0.00 0.00 0.00 67 1011.6
20260507124322 55 281 11.0 20.0 0.00 0.00 0.00 67 1011.6
20260507124228 55 256 11.0 20.0 0.00 0.00 0.00 66 1011.6
20260507124157 55 281 11.0 20.0 0.00 0.00 0.00 66 1011.5
20260507124051 55 287 10.0 20.0 0.00 0.00 0.00 66 1011.6
20260507123918 55 312 11.0 18.0 0.00 0.00 0.00 66 1011.6
20260507123817 55 273 11.0 18.0 0.00 0.00 0.00 66 1011.5
20260507123715 55 316 11.0 17.0 0.00 0.00 0.00 66 1011.5
20260507123620 55 285 11.0 17.0 0.00 0.00 0.00 66 1011.5
20260507123516 55 284 10.0 19.0 0.00 0.00 0.00 65 1011.4
20260507123422 55 279 10.0 19.0 0.00 0.00 0.00 65 1011.4
20260507123319 55 308 11.0 19.0 0.00 0.00 0.00 65 1011.4
20260507123246 55 296 10.0 19.0 0.00 0.00 0.00 65 1011.4
20260507123124 55 303 11.0 19.0 0.00 0.00 0.00 65 1011.4
20260507123048 56 291 11.0 19.0 0.00 0.00 0.00 65 1011.4
20260507122954 56 248 12.0 19.0 0.00 0.00 0.00 65 1011.4
20260507122839 56 302 12.0 19.0 0.00 0.00 0.00 65 1011.4
20260507122754 56 296 12.0 19.0 0.00 0.00 0.00 65 1011.4
20260507122641 56 283 11.0 19.0 0.00 0.00 0.00 64 1011.4
20260507122517 56 290 8.0 17.0 0.00 0.00 0.00 64 1011.4
20260507122414 56 318 9.0 17.0 0.00 0.00 0.00 64 1011.4
20260507122323 56 275 9.0 17.0 0.00 0.00 0.00 64 1011.5
20260507122242 56 258 9.0 16.0 0.00 0.00 0.00 64 1011.5
20260507122126 56 277 10.0 16.0 0.00 0.00 0.00 64 1011.5
20260507122023 56 266 10.0 16.0 0.00 0.00 0.00 64 1011.5
20260507121929 56 271 8.0 16.0 0.00 0.00 0.00 64 1011.5
20260507121825 56 285 7.0 16.0 0.00 0.00 0.00 64 1011.5
20260507121731 56 281 9.0 16.0 0.00 0.00 0.00 64 1011.5
20260507121630 56 304 10.0 17.0 0.00 0.00 0.00 64 1011.6
20260507121539 56 276 11.0 17.0 0.00 0.00 0.00 64 1011.6
20260507121436 56 299 11.0 17.0 0.00 0.00 0.00 63 1011.6
20260507121341 56 306 10.0 17.0 0.00 0.00 0.00 63 1011.6
20260507121220 56 269 9.0 17.0 0.00 0.00 0.00 63 1011.6
20260507121115 56 270 10.0 17.0 0.00 0.00 0.00 63 1011.5
20260507121019 56 285 11.0 17.0 0.00 0.00 0.00 63 1011.6
20260507120915 56 291 12.0 17.0 0.00 0.00 0.00 64 1011.5
20260507120825 55 287 11.0 17.0 0.00 0.00 0.00 64 1011.5
20260507120752 55 296 11.0 15.0 0.00 0.00 0.00 64 1011.6
20260507120659 55 292 10.0 15.0 0.00 0.00 0.00 64 1011.5
20260507120530 55 268 10.0 15.0 0.00 0.00 0.00 65 1011.5
20260507120436 56 294 9.0 15.0 0.00 0.00 0.00 65 1011.6
20260507120332 55 291 9.0 15.0 0.00 0.00 0.00 65 1011.6
20260507120236 55 281 7.0 15.0 0.00 0.00 0.00 65 1011.7
20260507120133 55 274 7.0 15.0 0.00 0.00 0.00 65 1011.6
20260507120040 56 274 8.0 15.0 0.00 0.00 0.00 65 1011.7
20260507115918 56 262 7.0 15.0 0.00 0.00 0.00 65 1011.7
20260507115816 56 312 8.0 15.0 0.00 0.00 0.00 65 1011.7
20260507115715 56 276 9.0 15.0 0.00 0.00 0.00 66 1011.7
20260507115620 56 284 7.0 14.0 0.00 0.00 0.00 66 1011.7
20260507115516 56 284 7.0 14.0 0.00 0.00 0.00 66 1011.7
20260507115426 56 275 8.0 14.0 0.00 0.00 0.00 66 1011.7
20260507115323 56 277 10.0 14.0 0.00 0.00 0.00 66 1011.7
20260507115230 56 295 9.0 14.0 0.00 0.00 0.00 66 1011.7
20260507115128 56 291 8.0 13.0 0.00 0.00 0.00 65 1011.8
20260507115053 56 288 6.0 13.0 0.00 0.00 0.00 65 1011.8
20260507114927 56 271 7.0 13.0 0.00 0.00 0.00 65 1011.8
20260507114831 56 298 8.0 13.0 0.00 0.00 0.00 65 1011.8
20260507114729 56 309 8.0 14.0 0.00 0.00 0.00 65 1011.8
20260507114640 56 267 8.0 14.0 0.00 0.00 0.00 64 1011.8
20260507114515 56 269 7.0 15.0 0.00 0.00 0.00 64 1011.8
20260507114420 56 298 7.0 15.0 0.00 0.00 0.00 64 1011.8
20260507114338 56 279 8.0 15.0 0.00 0.00 0.00 64 1011.8
20260507114223 56 282 8.0 15.0 0.00 0.00 0.00 64 1011.8
20260507114140 56 301 8.0 15.0 0.00 0.00 0.00 64 1011.8
20260507114024 56 274 9.0 15.0 0.00 0.00 0.00 64 1011.7
20260507113924 56 287 10.0 15.0 0.00 0.00 0.00 64 1011.7
20260507113830 56 302 10.0 15.0 0.00 0.00 0.00 63 1011.7
20260507113727 56 276 10.0 15.0 0.00 0.00 0.00 63 1011.8
20260507113634 56 301 9.0 15.0 0.00 0.00 0.00 63 1011.8
20260507113528 56 280 7.0 13.0 0.00 0.00 0.00 63 1011.7
20260507113424 56 283 9.0 13.0 0.00 0.00 0.00 63 1011.7
20260507113331 56 300 10.0 13.0 0.00 0.00 0.00 63 1011.7
20260507113232 56 264 8.0 13.0 0.00 0.00 0.00 63 1011.8
20260507113140 56 281 7.0 13.0 0.00 0.00 0.00 63 1011.8
20260507113016 56 285 8.0 13.0 0.00 0.00 0.00 63 1011.8
20260507112932 56 289 9.0 13.0 0.00 0.00 0.00 63 1011.8
20260507112838 56 287 9.0 13.0 0.00 0.00 0.00 63 1011.8
20260507112716 56 296 8.0 13.0 0.00 0.00 0.00 63 1011.8
20260507112625 56 289 8.0 12.0 0.00 0.00 0.00 63 1011.8
20260507112521 56 281 7.0 14.0 0.00 0.00 0.00 63 1011.8
20260507112417 56 285 7.0 14.0 0.00 0.00 0.00 63 1011.8
20260507112343 56 297 6.0 15.0 0.00 0.00 0.00 62 1011.8
20260507112229 56 304 5.0 15.0 0.00 0.00 0.00 63 1011.8
20260507112125 56 292 6.0 15.0 0.00 0.00 0.00 63 1011.8
20260507112022 56 285 6.0 15.0 0.00 0.00 0.00 63 1011.8
20260507111927 56 295 7.0 15.0 0.00 0.00 0.00 63 1011.8
20260507111838 56 275 9.0 15.0 0.00 0.00 0.00 63 1011.8
20260507111716 56 275 9.0 15.0 0.00 0.00 0.00 63 1011.8
20260507111620 56 282 9.0 15.0 0.00 0.00 0.00 63 1011.8
20260507111517 56 302 9.0 15.0 0.00 0.00 0.00 63 1011.8
20260507111442 56 283 9.0 15.0 0.00 0.00 0.00 63 1011.8
20260507111339 56 243 9.0 15.0 0.00 0.00 0.00 63 1011.8
20260507111227 56 277 9.0 15.0 0.00 0.00 0.00 63 1011.8
20260507111124 56 259 7.0 13.0 0.00 0.00 0.00 63 1011.8
20260507111029 56 315 6.0 10.0 0.00 0.00 0.00 62 1011.8
20260507110956 56 300 6.0 10.0 0.00 0.00 0.00 62 1011.8
20260507110831 56 271 5.0 10.0 0.00 0.00 0.00 62 1011.8
20260507110759 56 260 4.0 10.0 0.00 0.00 0.00 62 1011.8
20260507110531 56 257 4.0 10.0 0.00 0.00 0.00 62 1011.8
20260507110448 56 271 4.0 10.0 0.00 0.00 0.00 62 1011.8
20260507110352 56 273 5.0 10.0 0.00 0.00 0.00 62 1011.8
20260507110243 56 260 5.0 12.0 0.00 0.00 0.00 62 1011.7
20260507110119 56 264 4.0 13.0 0.00 0.00 0.00 62 1011.7
20260507110016 56 270 5.0 13.0 0.00 0.00 0.00 63 1011.8
20260507105922 56 256 6.0 13.0 0.00 0.00 0.00 63 1011.8
20260507105819 56 267 7.0 13.0 0.00 0.00 0.00 63 1011.8
20260507105716 56 278 6.0 13.0 0.00 0.00 0.00 63 1011.7
20260507105628 56 258 6.0 13.0 0.00 0.00 0.00 63 1011.7
20260507105523 56 274 8.0 15.0 0.00 0.00 0.00 63 1011.7
20260507105448 56 309 9.0 15.0 0.00 0.00 0.00 63 1011.7
20260507105318 56 278 8.0 15.0 0.00 0.00 0.00 63 1011.8
20260507105226 56 258 6.0 15.0 0.00 0.00 0.00 62 1011.8
20260507105120 56 261 6.0 15.0 0.00 0.00 0.00 63 1011.7
20260507105026 56 257 6.0 15.0 0.00 0.00 0.00 63 1011.7
20260507104928 56 264 5.0 15.0 0.00 0.00 0.00 63 1011.7
20260507104834 56 263 5.0 15.0 0.00 0.00 0.00 63 1011.8
20260507104751 56 272 8.0 15.0 0.00 0.00 0.00 63 1011.7
20260507104638 56 281 8.0 15.0 0.00 0.00 0.00 63 1011.8
20260507104532 56 261 7.0 10.0 0.00 0.00 0.00 63 1011.8
20260507104419 56 263 7.0 10.0 0.00 0.00 0.00 63 1011.8
20260507104317 56 258 5.0 10.0 0.00 0.00 0.00 63 1011.8
20260507104244 56 245 5.0 10.0 0.00 0.00 0.00 62 1011.8
20260507104154 56 277 4.0 10.0 0.00 0.00 0.00 62 1011.8
20260507104029 56 271 5.0 10.0 0.00 0.00 0.00 62 1011.8
20260507103925 56 279 6.0 10.0 0.00 0.00 0.00 63 1011.8
20260507103830 56 294 7.0 10.0 0.00 0.00 0.00 63 1011.8
20260507103756 56 262 7.0 10.0 0.00 0.00 0.00 64 1011.8
20260507103630 56 257 7.0 10.0 0.00 0.00 0.00 64 1011.8
20260507103526 56 275 6.0 11.0 0.00 0.00 0.00 64 1011.8
20260507103436 56 267 5.0 11.0 0.00 0.00 0.00 64 1011.8
20260507103332 56 260 7.0 11.0 0.00 0.00 0.00 64 1011.8
20260507103238 56 254 7.0 11.0 0.00 0.00 0.00 64 1011.8
20260507103135 56 254 6.0 11.0 0.00 0.00 0.00 64 1011.8
20260507103040 57 275 6.0 13.0 0.00 0.00 0.00 63 1011.8
20260507102917 57 266 7.0 13.0 0.00 0.00 0.00 64 1011.9
20260507102814 57 264 7.0 13.0 0.00 0.00 0.00 64 1011.9
20260507102725 57 264 7.0 13.0 0.00 0.00 0.00 64 1011.9
20260507102619 57 294 7.0 13.0 0.00 0.00 0.00 64 1011.9
20260507102527 57 281 7.0 15.0 0.00 0.00 0.00 64 1011.9
20260507102423 57 281 7.0 15.0 0.00 0.00 0.00 64 1011.9
20260507102325 57 267 7.0 15.0 0.00 0.00 0.00 64 1011.9
20260507102223 57 281 8.0 15.0 0.00 0.00 0.00 64 1011.9
20260507102132 57 268 8.0 15.0 0.00 0.00 0.00 64 1011.9
20260507102031 57 265 9.0 15.0 0.00 0.00 0.00 64 1011.9
20260507101926 57 279 10.0 15.0 0.00 0.00 0.00 64 1011.9
20260507101852 57 262 10.0 15.0 0.00 0.00 0.00 64 1011.9
20260507101737 57 279 9.0 15.0 0.00 0.00 0.00 64 1011.9
20260507101634 57 264 9.0 15.0 0.00 0.00 0.00 64 1011.9
20260507101537 57 301 9.0 15.0 0.00 0.00 0.00 64 1012.0
20260507101433 57 284 9.0 15.0 0.00 0.00 0.00 64 1012.0
20260507101324 57 265 10.0 15.0 0.00 0.00 0.00 64 1012.0
20260507101221 57 273 10.0 16.0 0.00 0.00 0.00 64 1012.1
20260507101123 57 265 9.0 16.0 0.00 0.00 0.00 64 1012.0
20260507101030 57 291 9.0 18.0 0.00 0.00 0.00 64 1012.0
20260507100927 57 281 8.0 18.0 0.00 0.00 0.00 64 1012.0
20260507100824 57 264 9.0 18.0 0.00 0.00 0.00 64 1012.0
20260507100731 57 285 10.0 18.0 0.00 0.00 0.00 64 1012.0
20260507100630 57 273 9.0 18.0 0.00 0.00 0.00 64 1012.1
20260507100557 57 273 9.0 18.0 0.00 0.00 0.00 64 1012.1
20260507100503 57 295 9.0 18.0 0.00 0.00 0.00 64 1012.0
20260507100319 57 268 12.0 18.0 0.00 0.00 0.00 64 1012.1
20260507100217 57 302 12.0 18.0 0.00 0.00 0.00 64 1012.0
20260507100121 57 282 9.0 17.0 0.00 0.00 0.00 63 1012.1
20260507100019 57 288 8.0 17.0 0.00 0.00 0.00 63 1012.0
20260507095917 57 279 8.0 17.0 0.00 0.00 0.00 63 1012.1
20260507095827 57 253 9.0 17.0 0.00 0.00 0.00 63 1012.1
20260507095724 57 255 9.0 17.0 0.00 0.00 0.00 63 1012.1
20260507095651 57 259 9.0 17.0 0.00 0.00 0.00 63 1012.1
20260507095533 57 263 10.0 17.0 0.00 0.00 0.00 63 1012.0
20260507095430 56 238 12.0 17.0 0.00 0.00 0.00 64 1012.1
20260507095335 56 249 11.0 16.0 0.00 0.00 0.00 64 1012.1
20260507095232 56 211 10.0 16.0 0.00 0.00 0.00 64 1012.1
20260507095142 56 262 9.0 16.0 0.00 0.00 0.00 64 1012.1
20260507095037 56 257 8.0 12.0 0.00 0.00 0.00 64 1012.1
20260507094923 56 286 8.0 12.0 0.00 0.00 0.00 64 1012.1
20260507094821 56 270 8.0 11.0 0.00 0.00 0.00 64 1012.2
20260507094718 56 271 7.0 11.0 0.00 0.00 0.00 64 1012.2
20260507094623 56 271 7.0 11.0 0.00 0.00 0.00 64 1012.1
20260507094519 56 272 8.0 11.0 0.00 0.00 0.00 65 1012.2
20260507094430 56 281 7.0 11.0 0.00 0.00 0.00 65 1012.2
20260507094327 56 273 5.0 11.0 0.00 0.00 0.00 65 1012.2
20260507094232 56 266 6.0 11.0 0.00 0.00 0.00 65 1012.1
20260507094130 56 254 8.0 11.0 0.00 0.00 0.00 65 1012.2
20260507094024 56 275 7.0 11.0 0.00 0.00 0.00 64 1012.2
20260507093931 56 272 5.0 9.0 0.00 0.00 0.00 64 1012.2
20260507093829 56 267 5.0 9.0 0.00 0.00 0.00 64 1012.2
20260507093742 56 267 5.0 9.0 0.00 0.00 0.00 64 1012.2
20260507093616 56 281 3.0 7.0 0.00 0.00 0.00 64 1012.1
20260507093532 56 281 3.0 7.0 0.00 0.00 0.00 64 1012.1
20260507093439 56 281 4.0 7.0 0.00 0.00 0.00 64 1012.1
20260507093336 56 276 4.0 7.0 0.00 0.00 0.00 64 1012.1
20260507093223 56 281 3.0 7.0 0.00 0.00 0.00 64 1012.1
20260507093120 57 281 3.0 7.0 0.00 0.00 0.00 64 1012.1
20260507093017 57 281 3.0 8.0 0.00 0.00 0.00 64 1012.1
20260507092921 57 281 3.0 8.0 0.00 0.00 0.00 64 1012.1
20260507092825 57 281 4.0 8.0 0.00 0.00 0.00 64 1012.1
20260507092742 57 282 4.0 8.0 0.00 0.00 0.00 64 1012.0
20260507092629 57 283 3.0 8.0 0.00 0.00 0.00 64 1012.0
20260507092553 57 283 3.0 8.0 0.00 0.00 0.00 64 1012.1
20260507092428 57 282 4.0 8.0 0.00 0.00 0.00 64 1012.1
20260507092339 57 282 5.0 8.0 0.00 0.00 0.00 64 1012.1
20260507092234 57 282 5.0 8.0 0.00 0.00 0.00 64 1012.1
20260507092141 57 282 5.0 8.0 0.00 0.00 0.00 64 1012.1
20260507092037 57 283 4.0 8.0 0.00 0.00 0.00 64 1012.1
20260507091923 57 283 3.0 8.0 0.00 0.00 0.00 64 1012.1
20260507091816 57 283 4.0 8.0 0.00 0.00 0.00 64 1012.1
20260507091743 57 278 4.0 8.0 0.00 0.00 0.00 63 1012.1
20260507091623 57 282 4.0 8.0 0.00 0.00 0.00 63 1012.1
20260507091519 57 276 3.0 8.0 0.00 0.00 0.00 63 1012.2
20260507091425 57 276 3.0 8.0 0.00 0.00 0.00 63 1012.2
20260507091322 57 277 4.0 8.0 0.00 0.00 0.00 63 1012.2
20260507091220 57 277 5.0 8.0 0.00 0.00 0.00 63 1012.2
20260507091129 57 272 4.0 8.0 0.00 0.00 0.00 63 1012.2
20260507091024 58 268 4.0 8.0 0.00 0.00 0.00 63 1012.2
20260507090914 58 276 3.0 8.0 0.00 0.00 0.00 63 1012.2
20260507090831 58 276 4.0 8.0 0.00 0.00 0.00 63 1012.2
20260507090740 58 276 6.0 8.0 0.00 0.00 0.00 63 1012.3
20260507090615 58 279 4.0 8.0 0.00 0.00 0.00 62 1012.2
20260507090520 58 264 3.0 5.0 0.00 0.00 0.00 62 1012.2
20260507090417 58 264 3.0 7.0 0.00 0.00 0.00 62 1012.2
20260507090315 58 264 3.0 7.0 0.00 0.00 0.00 62 1012.2
20260507090243 58 264 3.0 7.0 0.00 0.00 0.00 62 1012.2
20260507090129 58 264 3.0 7.0 0.00 0.00 0.00 62 1012.2
20260507090044 58 263 2.0 7.0 0.00 0.00 0.00 62 1012.2
20260507085930 58 263 2.0 7.0 0.00 0.00 0.00 62 1012.2
20260507085828 58 263 3.0 7.0 0.00 0.00 0.00 62 1012.2
20260507085737 58 263 4.0 7.0 0.00 0.00 0.00 62 1012.2
20260507085642 58 263 4.0 7.0 0.00 0.00 0.00 62 1012.3
20260507085516 58 264 4.0 7.0 0.00 0.00 0.00 62 1012.3
20260507085414 58 264 3.0 7.0 0.00 0.00 0.00 62 1012.3
20260507085320 58 265 3.0 7.0 0.00 0.00 0.00 62 1012.3
20260507085246 58 265 3.0 7.0 0.00 0.00 0.00 62 1012.3
20260507085142 58 265 3.0 7.0 0.00 0.00 0.00 62 1012.3
20260507085027 58 265 3.0 8.0 0.00 0.00 0.00 62 1012.3
20260507084922 58 265 4.0 11.0 0.00 0.00 0.00 62 1012.3
20260507084818 59 267 4.0 11.0 0.00 0.00 0.00 62 1012.3
20260507084724 59 268 4.0 11.0 0.00 0.00 0.00 61 1012.3
20260507084635 59 271 4.0 11.0 0.00 0.00 0.00 61 1012.3
20260507084531 59 271 4.0 11.0 0.00 0.00 0.00 62 1012.4
20260507084437 59 279 5.0 11.0 0.00 0.00 0.00 61 1012.3
20260507084315 59 298 4.0 11.0 0.00 0.00 0.00 61 1012.3
20260507084233 59 252 5.0 11.0 0.00 0.00 0.00 62 1012.3
20260507084117 59 251 7.0 11.0 0.00 0.00 0.00 62 1012.3
20260507084018 59 252 6.0 11.0 0.00 0.00 0.00 62 1012.3
20260507083925 59 259 6.0 11.0 0.00 0.00 0.00 62 1012.3
20260507083823 59 284 7.0 11.0 0.00 0.00 0.00 62 1012.3
20260507083720 59 273 7.0 10.0 0.00 0.00 0.00 62 1012.3
20260507083628 59 284 7.0 10.0 0.00 0.00 0.00 62 1012.3
20260507083551 59 270 6.0 10.0 0.00 0.00 0.00 62 1012.3
20260507083427 59 244 5.0 10.0 0.00 0.00 0.00 62 1012.3
20260507083327 59 233 5.0 10.0 0.00 0.00 0.00 62 1012.3
20260507083232 59 283 7.0 10.0 0.00 0.00 0.00 62 1012.3
20260507083137 59 283 7.0 10.0 0.00 0.00 0.00 62 1012.3
20260507083032 59 266 5.0 10.0 0.00 0.00 0.00 62 1012.4
20260507082930 59 246 5.0 8.0 0.00 0.00 0.00 63 1012.3
20260507082814 59 237 6.0 8.0 0.00 0.00 0.00 62 1012.3
20260507082741 59 239 6.0 8.0 0.00 0.00 0.00 62 1012.3
20260507082615 59 239 4.0 8.0 0.00 0.00 0.00 62 1012.3
20260507082517 59 252 2.0 10.0 0.00 0.00 0.00 62 1012.3
20260507082444 59 253 2.0 10.0 0.00 0.00 0.00 62 1012.2
20260507082326 59 253 2.0 10.0 0.00 0.00 0.00 61 1012.2
20260507082223 59 253 2.0 10.0 0.00 0.00 0.00 61 1012.3
20260507082132 59 253 3.0 10.0 0.00 0.00 0.00 61 1012.3
20260507082046 59 252 3.0 10.0 0.00 0.00 0.00 60 1012.3
20260507081931 59 253 5.0 10.0 0.00 0.00 0.00 60 1012.3
20260507081827 59 253 5.0 10.0 0.00 0.00 0.00 60 1012.2
20260507081716 59 224 4.0 10.0 0.00 0.00 0.00 60 1012.3
20260507081641 59 245 3.0 9.0 0.00 0.00 0.00 59 1012.3
20260507081516 59 245 3.0 9.0 0.00 0.00 0.00 59 1012.2
20260507081422 59 245 4.0 9.0 0.00 0.00 0.00 59 1012.3
20260507081320 59 246 3.0 9.0 0.00 0.00 0.00 58 1012.3
20260507081228 59 246 4.0 9.0 0.00 0.00 0.00 58 1012.3
20260507081124 59 243 5.0 9.0 0.00 0.00 0.00 58 1012.3
20260507081034 59 243 6.0 9.0 0.00 0.00 0.00 58 1012.3
20260507080950 59 242 7.0 10.0 0.00 0.00 0.00 58 1012.3
20260507080834 59 259 7.0 10.0 0.00 0.00 0.00 58 1012.3
20260507080733 59 277 5.0 10.0 0.00 0.00 0.00 58 1012.3
20260507080641 60 273 5.0 10.0 0.00 0.00 0.00 57 1012.3
20260507080536 60 227 6.0 10.0 0.00 0.00 0.00 57 1012.3
20260507080440 60 225 6.0 10.0 0.00 0.00 0.00 57 1012.3
20260507080321 59 292 5.0 10.0 0.00 0.00 0.00 57 1012.3
20260507080220 60 254 5.0 8.0 0.00 0.00 0.00 56 1012.4
20260507080123 60 260 5.0 8.0 0.00 0.00 0.00 56 1012.3
20260507080020 60 261 5.0 8.0 0.00 0.00 0.00 56 1012.3
20260507075926 60 259 5.0 8.0 0.00 0.00 0.00 57 1012.3
20260507075843 60 255 5.0 8.0 0.00 0.00 0.00 57 1012.4
20260507075748 60 239 4.0 8.0 0.00 0.00 0.00 57 1012.4
20260507075636 60 238 5.0 8.0 0.00 0.00 0.00 56 1012.4
20260507075550 60 238 5.0 8.0 0.00 0.00 0.00 56 1012.4
20260507075420 60 248 5.0 9.0 0.00 0.00 0.00 55 1012.4
20260507075317 60 247 5.0 9.0 0.00 0.00 0.00 56 1012.5
20260507075217 60 252 3.0 9.0 0.00 0.00 0.00 55 1012.4
20260507075122 60 266 3.0 9.0 0.00 0.00 0.00 55 1012.4
20260507075020 60 271 3.0 9.0 0.00 0.00 0.00 55 1012.5
20260507074926 60 271 3.0 9.0 0.00 0.00 0.00 55 1012.5
20260507074828 60 292 2.0 17.0 0.00 0.00 0.00 55 1012.5
20260507074755 60 293 4.0 17.0 0.00 0.00 0.00 55 1012.4
20260507074642 60 293 6.0 17.0 0.00 0.00 0.00 55 1012.5
20260507074517 60 267 6.0 17.0 0.00 0.00 0.00 55 1012.5
20260507074415 60 258 6.0 17.0 0.00 0.00 0.00 55 1012.6
20260507074341 60 289 6.0 17.0 0.00 0.00 0.00 55 1012.6
20260507074216 60 317 7.0 17.0 0.00 0.00 0.00 55 1012.5
20260507074128 60 306 9.0 17.0 0.00 0.00 0.00 55 1012.5
20260507074021 60 282 9.0 17.0 0.00 0.00 0.00 55 1012.5
20260507073917 60 264 7.0 13.0 0.00 0.00 0.00 55 1012.4
20260507073822 60 273 6.0 13.0 0.00 0.00 0.00 56 1012.4
20260507073721 60 261 7.0 13.0 0.00 0.00 0.00 56 1012.4
20260507073625 60 254 8.0 13.0 0.00 0.00 0.00 56 1012.4
20260507073523 60 276 8.0 13.0 0.00 0.00 0.00 56 1012.5
20260507073452 60 268 7.0 13.0 0.00 0.00 0.00 57 1012.5
20260507073329 60 252 5.0 9.0 0.00 0.00 0.00 57 1012.5
20260507073234 60 241 5.0 9.0 0.00 0.00 0.00 57 1012.4
20260507073134 60 231 6.0 9.0 0.00 0.00 0.00 56 1012.4
20260507073035 60 239 6.0 9.0 0.00 0.00 0.00 56 1012.4
20260507073001 60 253 6.0 9.0 0.00 0.00 0.00 56 1012.5
20260507072817 60 241 7.0 10.0 0.00 0.00 0.00 57 1012.4
20260507072720 60 259 6.0 10.0 0.00 0.00 0.00 57 1012.5
20260507072625 60 255 6.0 10.0 0.00 0.00 0.00 57 1012.4
20260507072522 60 254 5.0 10.0 0.00 0.00 0.00 57 1012.5
20260507072419 60 257 5.0 10.0 0.00 0.00 0.00 57 1012.5
20260507072326 60 256 4.0 10.0 0.00 0.00 0.00 57 1012.5
20260507072225 60 259 5.0 10.0 0.00 0.00 0.00 57 1012.4
20260507072132 60 259 7.0 10.0 0.00 0.00 0.00 57 1012.4
20260507072031 60 265 7.0 11.0 0.00 0.00 0.00 57 1012.4
20260507071939 60 256 5.0 11.0 0.00 0.00 0.00 57 1012.4
20260507071814 60 231 6.0 11.0 0.00 0.00 0.00 57 1012.4
20260507071742 60 239 6.0 11.0 0.00 0.00 0.00 56 1012.4
20260507071617 60 254 7.0 11.0 0.00 0.00 0.00 56 1012.4
20260507071515 60 262 7.0 11.0 0.00 0.00 0.00 56 1012.4
20260507071424 60 248 7.0 11.0 0.00 0.00 0.00 56 1012.4
20260507071322 60 233 7.0 11.0 0.00 0.00 0.00 56 1012.4
20260507071220 60 260 7.0 13.0 0.00 0.00 0.00 57 1012.6
20260507071126 60 267 7.0 13.0 0.00 0.00 0.00 57 1012.6
20260507071024 60 246 7.0 13.0 0.00 0.00 0.00 57 1012.5
20260507070930 61 247 7.0 13.0 0.00 0.00 0.00 57 1012.5
20260507070845 61 250 8.0 13.0 0.00 0.00 0.00 57 1012.5
20260507070733 61 264 8.0 13.0 0.00 0.00 0.00 57 1012.5
20260507070700 61 248 7.0 13.0 0.00 0.00 0.00 57 1012.5
20260507070622 61 262 7.0 15.0 0.00 0.00 0.00 57 1012.5
20260507070418 61 275 8.0 15.0 0.00 0.00 0.00 57 1012.5
20260507070315 61 262 8.0 15.0 0.00 0.00 0.00 57 1012.5
20260507070223 61 253 8.0 15.0 0.00 0.00 0.00 57 1012.6
20260507070119 61 255 9.0 15.0 0.00 0.00 0.00 57 1012.5
20260507070021 61 258 10.0 15.0 0.00 0.00 0.00 57 1012.5
20260507065926 61 269 10.0 15.0 0.00 0.00 0.00 57 1012.5
20260507065824 61 246 11.0 16.0 0.00 0.00 0.00 58 1012.6
20260507065731 61 264 10.0 16.0 0.00 0.00 0.00 58 1012.6
20260507065628 61 257 8.0 16.0 0.00 0.00 0.00 58 1012.6
20260507065553 61 277 7.0 16.0 0.00 0.00 0.00 58 1012.6
20260507065429 61 270 8.0 16.0 0.00 0.00 0.00 58 1012.6
20260507065339 61 259 8.0 16.0 0.00 0.00 0.00 58 1012.6
20260507065235 61 271 10.0 16.0 0.00 0.00 0.00 58 1012.6
20260507065142 61 261 10.0 16.0 0.00 0.00 0.00 58 1012.6
20260507065018 61 282 9.0 14.0 0.00 0.00 0.00 58 1012.6
20260507064916 61 278 8.0 14.0 0.00 0.00 0.00 58 1012.6
20260507064823 61 262 8.0 14.0 0.00 0.00 0.00 58 1012.6
20260507064721 61 265 8.0 14.0 0.00 0.00 0.00 58 1012.6
20260507064633 61 243 8.0 15.0 0.00 0.00 0.00 58 1012.6
20260507064529 61 295 8.0 17.0 0.00 0.00 0.00 57 1012.6
20260507064436 61 277 9.0 19.0 0.00 0.00 0.00 57 1012.6
20260507064314 61 246 10.0 19.0 0.00 0.00 0.00 57 1012.7
20260507064242 61 294 9.0 19.0 0.00 0.00 0.00 57 1012.7
20260507064116 61 262 11.0 19.0 0.00 0.00 0.00 57 1012.7
20260507064017 61 252 10.0 19.0 0.00 0.00 0.00 57 1012.7
20260507063924 61 252 12.0 19.0 0.00 0.00 0.00 57 1012.7
20260507063842 61 255 13.0 19.0 0.00 0.00 0.00 57 1012.7
20260507063728 61 254 14.0 19.0 0.00 0.00 0.00 57 1012.7
20260507063623 61 260 13.0 19.0 0.00 0.00 0.00 57 1012.7
20260507063529 61 248 12.0 19.0 0.00 0.00 0.00 57 1012.7
20260507063445 61 255 12.0 19.0 0.00 0.00 0.00 57 1012.7
20260507063331 61 247 11.0 19.0 0.00 0.00 0.00 56 1012.7
20260507063232 61 264 12.0 18.0 0.00 0.00 0.00 56 1012.7
20260507063141 61 232 11.0 18.0 0.00 0.00 0.00 56 1012.7
20260507063036 61 246 10.0 16.0 0.00 0.00 0.00 56 1012.6
20260507062913 61 256 10.0 16.0 0.00 0.00 0.00 56 1012.6
20260507062821 61 268 11.0 16.0 0.00 0.00 0.00 56 1012.7
20260507062720 61 244 10.0 16.0 0.00 0.00 0.00 56 1012.7
20260507062644 61 258 8.0 14.0 0.00 0.00 0.00 55 1012.6
20260507062524 61 247 8.0 14.0 0.00 0.00 0.00 55 1012.6
20260507062431 61 253 8.0 14.0 0.00 0.00 0.00 55 1012.6
20260507062329 62 232 7.0 14.0 0.00 0.00 0.00 55 1012.7
20260507062235 62 231 6.0 11.0 0.00 0.00 0.00 55 1012.7
20260507062132 62 268 8.0 11.0 0.00 0.00 0.00 55 1012.7
20260507062029 62 262 8.0 10.0 0.00 0.00 0.00 55 1012.7
20260507061940 62 237 7.0 10.0 0.00 0.00 0.00 55 1012.7
20260507061817 62 239 5.0 12.0 0.00 0.00 0.00 55 1012.7
20260507061744 62 275 7.0 12.0 0.00 0.00 0.00 54 1012.7
20260507061631 62 262 7.0 12.0 0.00 0.00 0.00 54 1012.7
20260507061523 62 252 7.0 12.0 0.00 0.00 0.00 54 1012.7
20260507061420 62 264 8.0 12.0 0.00 0.00 0.00 54 1012.7
20260507061347 62 252 7.0 12.0 0.00 0.00 0.00 54 1012.7
20260507061234 62 246 7.0 12.0 0.00 0.00 0.00 54 1012.7
20260507061114 62 246 8.0 12.0 0.00 0.00 0.00 54 1012.7
20260507061031 62 257 8.0 12.0 0.00 0.00 0.00 54 1012.7
20260507060938 62 256 8.0 12.0 0.00 0.00 0.00 54 1012.7
20260507060815 62 235 9.0 12.0 0.00 0.00 0.00 53 1012.7
20260507060721 62 250 7.0 12.0 0.00 0.00 0.00 53 1012.7
20260507060616 62 245 5.0 9.0 0.00 0.00 0.00 53 1012.7
20260507060528 62 239 4.0 9.0 0.00 0.00 0.00 53 1012.7
20260507060425 62 239 5.0 9.0 0.00 0.00 0.00 53 1012.7
20260507060351 62 241 6.0 9.0 0.00 0.00 0.00 52 1012.7
20260507060227 62 241 5.0 10.0 0.00 0.00 0.00 52 1012.7
20260507060135 62 243 4.0 10.0 0.00 0.00 0.00 52 1012.7
20260507060042 62 243 5.0 11.0 0.00 0.00 0.00 52 1012.7
20260507055927 62 248 4.0 11.0 0.00 0.00 0.00 52 1012.7
20260507055825 62 246 4.0 11.0 0.00 0.00 0.00 52 1012.8
20260507055734 62 246 5.0 11.0 0.00 0.00 0.00 52 1012.8
20260507055632 62 248 6.0 11.0 0.00 0.00 0.00 52 1012.8
20260507055526 62 248 6.0 11.0 0.00 0.00 0.00 52 1012.7
20260507055432 62 265 5.0 11.0 0.00 0.00 0.00 52 1012.8
20260507055329 62 262 6.0 11.0 0.00 0.00 0.00 52 1012.8
20260507055233 63 273 7.0 11.0 0.00 0.00 0.00 52 1012.8
20260507055140 63 275 5.0 11.0 0.00 0.00 0.00 52 1012.8
20260507055021 63 262 4.0 9.0 0.00 0.00 0.00 51 1012.7
20260507054918 63 246 6.0 9.0 0.00 0.00 0.00 51 1012.7
20260507054826 63 232 6.0 9.0 0.00 0.00 0.00 51 1012.7
20260507054722 63 231 4.0 8.0 0.00 0.00 0.00 51 1012.7
20260507054631 63 223 3.0 6.0 0.00 0.00 0.00 51 1012.7
20260507054524 63 210 3.0 9.0 0.00 0.00 0.00 51 1012.8
20260507054426 63 206 3.0 9.0 0.00 0.00 0.00 51 1012.8
20260507054330 63 206 3.0 9.0 0.00 0.00 0.00 51 1012.7
20260507054235 63 196 3.0 9.0 0.00 0.00 0.00 51 1012.7
20260507054133 63 196 3.0 9.0 0.00 0.00 0.00 51 1012.7
20260507054035 63 194 2.0 11.0 0.00 0.00 0.00 51 1012.7
20260507053932 63 195 3.0 11.0 0.00 0.00 0.00 51 1012.7
20260507053838 63 194 5.0 11.0 0.00 0.00 0.00 51 1012.8
20260507053720 63 234 5.0 11.0 0.00 0.00 0.00 51 1012.8
20260507053614 63 240 4.0 11.0 0.00 0.00 0.00 51 1012.8
20260507053540 63 258 4.0 11.0 0.00 0.00 0.00 51 1012.8
20260507053416 63 245 4.0 11.0 0.00 0.00 0.00 51 1012.8
20260507053341 63 245 6.0 11.0 0.00 0.00 0.00 51 1012.8
20260507053220 63 248 6.0 11.0 0.00 0.00 0.00 52 1012.8
20260507053125 63 254 5.0 12.0 0.00 0.00 0.00 52 1012.8
20260507053021 63 254 6.0 12.0 0.00 0.00 0.00 52 1012.8
20260507052930 63 246 6.0 12.0 0.00 0.00 0.00 52 1012.8
20260507052827 63 229 4.0 12.0 0.00 0.00 0.00 52 1012.7
20260507052724 63 256 5.0 12.0 0.00 0.00 0.00 52 1012.7
20260507052631 63 246 4.0 12.0 0.00 0.00 0.00 52 1012.7
20260507052535 63 250 5.0 12.0 0.00 0.00 0.00 52 1012.8
20260507052432 63 240 7.0 12.0 0.00 0.00 0.00 52 1012.8
20260507052328 63 251 8.0 12.0 0.00 0.00 0.00 52 1012.8
20260507052219 63 248 6.0 10.0 0.00 0.00 0.00 52 1012.8
20260507052115 63 269 6.0 10.0 0.00 0.00 0.00 52 1012.8
20260507052042 63 268 7.0 10.0 0.00 0.00 0.00 52 1012.8
20260507051940 63 242 6.0 10.0 0.00 0.00 0.00 52 1012.8
20260507051826 63 283 6.0 10.0 0.00 0.00 0.00 52 1012.8
20260507051724 63 254 7.0 10.0 0.00 0.00 0.00 52 1012.8
20260507051652 63 274 6.0 10.0 0.00 0.00 0.00 52 1012.8
20260507051530 63 251 5.0 9.0 0.00 0.00 0.00 52 1012.8
20260507051437 64 262 5.0 9.0 0.00 0.00 0.00 52 1012.8
20260507051332 64 264 5.0 9.0 0.00 0.00 0.00 52 1012.8
20260507051222 64 249 5.0 10.0 0.00 0.00 0.00 52 1012.8
20260507051117 64 262 5.0 10.0 0.00 0.00 0.00 52 1012.8
20260507051013 64 267 7.0 10.0 0.00 0.00 0.00 52 1012.8
20260507050923 64 271 6.0 10.0 0.00 0.00 0.00 52 1012.8
20260507050840 64 242 5.0 10.0 0.00 0.00 0.00 52 1012.8
20260507050725 64 248 5.0 10.0 0.00 0.00 0.00 52 1012.8
20260507050653 64 242 5.0 10.0 0.00 0.00 0.00 52 1012.8
20260507050528 64 246 5.0 10.0 0.00 0.00 0.00 52 1012.8
20260507050426 64 247 5.0 11.0 0.00 0.00 0.00 52 1012.8
20260507050332 64 242 5.0 14.0 0.00 0.00 0.00 52 1012.8
20260507050300 64 241 6.0 14.0 0.00 0.00 0.00 52 1012.8
20260507050118 64 257 6.0 14.0 0.00 0.00 0.00 52 1012.8
20260507050016 64 229 5.0 14.0 0.00 0.00 0.00 52 1012.8
20260507045922 64 253 5.0 14.0 0.00 0.00 0.00 52 1012.8
20260507045819 64 254 6.0 14.0 0.00 0.00 0.00 52 1012.8
20260507045717 64 256 7.0 14.0 0.00 0.00 0.00 52 1012.9
20260507045620 64 264 8.0 14.0 0.00 0.00 0.00 52 1012.9
20260507045521 64 249 8.0 14.0 0.00 0.00 0.00 52 1012.9
20260507045427 64 244 7.0 14.0 0.00 0.00 0.00 52 1012.9
20260507045324 64 240 5.0 13.0 0.00 0.00 0.00 52 1012.8
20260507045221 64 233 5.0 13.0 0.00 0.00 0.00 52 1012.8
20260507045129 64 262 6.0 13.0 0.00 0.00 0.00 51 1012.8
20260507045052 64 259 7.0 13.0 0.00 0.00 0.00 51 1012.7
20260507044929 64 242 8.0 13.0 0.00 0.00 0.00 51 1012.8
20260507044835 65 265 8.0 12.0 0.00 0.00 0.00 51 1012.7
20260507044715 65 252 7.0 12.0 0.00 0.00 0.00 51 1012.7
20260507044619 65 233 6.0 12.0 0.00 0.00 0.00 51 1012.7
20260507044517 65 251 7.0 12.0 0.00 0.00 0.00 51 1012.7
20260507044442 65 269 8.0 12.0 0.00 0.00 0.00 51 1012.7
20260507044348 65 275 6.0 12.0 0.00 0.00 0.00 51 1012.7
20260507044221 65 231 5.0 12.0 0.00 0.00 0.00 50 1012.7
20260507044123 65 244 6.0 12.0 0.00 0.00 0.00 50 1012.7
20260507044024 65 260 7.0 12.0 0.00 0.00 0.00 50 1012.7
20260507043823 65 262 8.0 12.0 0.00 0.00 0.00 50 1012.7
20260507043724 65 259 7.0 11.0 0.00 0.00 0.00 50 1012.7
20260507043619 65 253 6.0 11.0 0.00 0.00 0.00 49 1012.8
20260507043516 65 271 6.0 11.0 0.00 0.00 0.00 49 1012.8
20260507043421 65 269 7.0 12.0 0.00 0.00 0.00 49 1012.7
20260507043348 65 257 7.0 12.0 0.00 0.00 0.00 49 1012.7
20260507043229 65 256 6.0 12.0 0.00 0.00 0.00 49 1012.7
20260507043124 65 268 6.0 12.0 0.00 0.00 0.00 49 1012.7
20260507043051 65 252 6.0 12.0 0.00 0.00 0.00 49 1012.7
20260507042934 65 256 7.0 13.0 0.00 0.00 0.00 49 1012.8
20260507042852 65 244 7.0 13.0 0.00 0.00 0.00 49 1012.7
20260507042740 65 255 8.0 13.0 0.00 0.00 0.00 49 1012.7
20260507042635 66 260 7.0 13.0 0.00 0.00 0.00 49 1012.7
20260507042540 66 252 6.0 13.0 0.00 0.00 0.00 49 1012.7
20260507042419 66 256 6.0 13.0 0.00 0.00 0.00 49 1012.7
20260507042344 66 250 6.0 13.0 0.00 0.00 0.00 49 1012.7
20260507042230 66 250 6.0 13.0 0.00 0.00 0.00 48 1012.7
20260507042122 66 258 8.0 13.0 0.00 0.00 0.00 48 1012.7
20260507042028 66 261 7.0 13.0 0.00 0.00 0.00 48 1012.7
20260507041924 66 255 6.0 11.0 0.00 0.00 0.00 48 1012.7
20260507041829 66 247 8.0 11.0 0.00 0.00 0.00 48 1012.7
20260507041729 66 262 8.0 11.0 0.00 0.00 0.00 48 1012.7
20260507041628 66 259 6.0 10.0 0.00 0.00 0.00 48 1012.6
20260507041532 66 256 5.0 12.0 0.00 0.00 0.00 48 1012.7
20260507041430 66 256 6.0 12.0 0.00 0.00 0.00 48 1012.6
20260507041335 66 245 7.0 12.0 0.00 0.00 0.00 48 1012.6
20260507041252 66 239 7.0 13.0 0.00 0.00 0.00 47 1012.6
20260507041138 66 250 7.0 13.0 0.00 0.00 0.00 47 1012.6
20260507041018 67 244 7.0 13.0 0.00 0.00 0.00 47 1012.5
20260507040945 67 256 6.0 13.0 0.00 0.00 0.00 47 1012.5
20260507040822 67 254 7.0 13.0 0.00 0.00 0.00 46 1012.5
20260507040730 67 260 8.0 13.0 0.00 0.00 0.00 46 1012.5
20260507040624 67 246 7.0 13.0 0.00 0.00 0.00 46 1012.5
20260507040522 67 247 9.0 13.0 0.00 0.00 0.00 46 1012.5
20260507040429 67 259 9.0 13.0 0.00 0.00 0.00 46 1012.5
20260507040328 67 251 8.0 13.0 0.00 0.00 0.00 46 1012.4
20260507040235 67 244 8.0 13.0 0.00 0.00 0.00 45 1012.5
20260507040134 67 237 7.0 13.0 0.00 0.00 0.00 45 1012.4
20260507040029 67 245 7.0 13.0 0.00 0.00 0.00 45 1012.4
20260507035936 67 234 7.0 13.0 0.00 0.00 0.00 44 1012.4
20260507035833 68 258 8.0 13.0 0.00 0.00 0.00 44 1012.4
20260507035743 68 244 9.0 13.0 0.00 0.00 0.00 44 1012.3
20260507035618 68 238 9.0 12.0 0.00 0.00 0.00 43 1012.3
20260507035515 68 237 9.0 13.0 0.00 0.00 0.00 43 1012.3
20260507035419 68 252 8.0 13.0 0.00 0.00 0.00 42 1012.4
20260507035316 68 249 6.0 13.0 0.00 0.00 0.00 40 1012.3
20260507035244 68 239 6.0 13.0 0.00 0.00 0.00 40 1012.3
20260507035122 68 257 5.0 13.0 0.00 0.00 0.00 40 1012.4
20260507035020 68 275 6.0 13.0 0.00 0.00 0.00 40 1012.3
20260507034926 68 278 7.0 13.0 0.00 0.00 0.00 40 1012.3
20260507034822 68 262 9.0 14.0 0.00 0.00 0.00 39 1012.3
20260507034749 68 270 8.0 14.0 0.00 0.00 0.00 39 1012.3
20260507034623 68 267 8.0 14.0 0.00 0.00 0.00 39 1012.3
20260507034529 68 278 8.0 14.0 0.00 0.00 0.00 39 1012.3
20260507034445 68 297 7.0 14.0 0.00 0.00 0.00 39 1012.3
20260507034334 68 292 6.0 14.0 0.00 0.00 0.00 39 1012.3
20260507034300 68 296 6.0 14.0 0.00 0.00 0.00 39 1012.3
20260507034134 68 283 8.0 14.0 0.00 0.00 0.00 39 1012.2
20260507034030 69 300 8.0 14.0 0.00 0.00 0.00 39 1012.3
20260507033936 69 268 7.0 11.0 0.00 0.00 0.00 38 1012.2
20260507033833 69 265 8.0 11.0 0.00 0.00 0.00 38 1012.2
20260507033740 69 281 7.0 11.0 0.00 0.00 0.00 38 1012.2
20260507033640 69 267 5.0 11.0 0.00 0.00 0.00 38 1012.2
20260507033545 69 259 6.0 11.0 0.00 0.00 0.00 38 1012.2
20260507033449 69 270 7.0 12.0 0.00 0.00 0.00 38 1012.2
20260507033324 69 289 7.0 14.0 0.00 0.00 0.00 38 1012.2
20260507033221 69 277 6.0 14.0 0.00 0.00 0.00 38 1012.2
20260507033128 69 284 7.0 14.0 0.00 0.00 0.00 37 1012.2
20260507033023 69 289 7.0 14.0 0.00 0.00 0.00 37 1012.2
20260507032928 69 269 7.0 14.0 0.00 0.00 0.00 37 1012.2
20260507032828 69 271 7.0 14.0 0.00 0.00 0.00 37 1012.1
20260507032735 69 295 8.0 14.0 0.00 0.00 0.00 38 1012.1
20260507032642 69 250 8.0 14.0 0.00 0.00 0.00 37 1012.1
20260507032536 69 289 10.0 14.0 0.00 0.00 0.00 38 1012.1
20260507032502 69 264 10.0 14.0 0.00 0.00 0.00 38 1012.1
20260507032317 69 273 9.0 16.0 0.00 0.00 0.00 38 1012.1
20260507032222 70 283 8.0 16.0 0.00 0.00 0.00 38 1012.1
20260507032138 70 277 7.0 16.0 0.00 0.00 0.00 37 1012.1
20260507032028 70 281 8.0 16.0 0.00 0.00 0.00 37 1012.1
20260507031926 70 281 8.0 16.0 0.00 0.00 0.00 37 1012.0
20260507031833 70 283 7.0 16.0 0.00 0.00 0.00 37 1012.0
20260507031725 70 306 8.0 16.0 0.00 0.00 0.00 37 1012.0
20260507031652 70 304 10.0 16.0 0.00 0.00 0.00 37 1012.0
20260507031555 70 290 10.0 16.0 0.00 0.00 0.00 37 1012.0
20260507031430 70 272 9.0 16.0 0.00 0.00 0.00 38 1011.9
20260507031336 70 294 10.0 16.0 0.00 0.00 0.00 37 1012.0
20260507031216 70 279 10.0 18.0 0.00 0.00 0.00 38 1011.9
20260507031142 70 302 10.0 18.0 0.00 0.00 0.00 38 1011.9
20260507031016 70 271 9.0 18.0 0.00 0.00 0.00 38 1011.9
20260507030914 70 294 10.0 18.0 0.00 0.00 0.00 38 1011.9
20260507030819 70 291 9.0 18.0 0.00 0.00 0.00 38 1011.9
20260507030747 70 294 10.0 18.0 0.00 0.00 0.00 37 1011.9
20260507030619 70 265 11.0 18.0 0.00 0.00 0.00 37 1011.9
20260507030529 70 296 11.0 18.0 0.00 0.00 0.00 38 1011.9
20260507030426 70 304 9.0 17.0 0.00 0.00 0.00 38 1011.9
20260507030324 70 257 9.0 19.0 0.00 0.00 0.00 37 1011.9
20260507030230 71 302 9.0 19.0 0.00 0.00 0.00 37 1011.9
20260507030128 71 295 8.0 19.0 0.00 0.00 0.00 37 1011.9
20260507030034 71 284 10.0 19.0 0.00 0.00 0.00 37 1011.9
20260507025948 71 300 9.0 19.0 0.00 0.00 0.00 37 1011.9
20260507025837 71 312 8.0 19.0 0.00 0.00 0.00 37 1011.9
20260507025714 71 300 10.0 19.0 0.00 0.00 0.00 36 1011.9
20260507025641 71 301 10.0 19.0 0.00 0.00 0.00 36 1011.9
20260507025517 71 276 12.0 19.0 0.00 0.00 0.00 36 1011.9
20260507025433 71 314 11.0 17.0 0.00 0.00 0.00 36 1011.9
20260507025338 71 285 10.0 17.0 0.00 0.00 0.00 37 1011.9
20260507025222 71 297 9.0 17.0 0.00 0.00 0.00 37 1011.8
20260507025118 71 318 10.0 17.0 0.00 0.00 0.00 37 1011.9
20260507025044 71 312 10.0 16.0 0.00 0.00 0.00 37 1011.8
20260507024948 71 292 9.0 14.0 0.00 0.00 0.00 37 1011.8
20260507024825 71 316 9.0 16.0 0.00 0.00 0.00 37 1011.8
20260507024731 71 291 9.0 16.0 0.00 0.00 0.00 37 1011.8
20260507024631 71 278 8.0 16.0 0.00 0.00 0.00 37 1011.8
20260507024538 71 323 8.0 16.0 0.00 0.00 0.00 37 1011.8
20260507024433 71 296 7.0 16.0 0.00 0.00 0.00 37 1011.8
20260507024338 72 268 7.0 16.0 0.00 0.00 0.00 37 1011.8
20260507024216 72 304 9.0 16.0 0.00 0.00 0.00 37 1011.8
20260507024121 72 289 9.0 16.0 0.00 0.00 0.00 37 1011.8
20260507024018 72 292 8.0 15.0 0.00 0.00 0.00 37 1011.8
20260507023914 72 350 8.0 16.0 0.00 0.00 0.00 37 1011.8
20260507023840 72 267 8.0 16.0 0.00 0.00 0.00 37 1011.8
20260507023732 72 295 9.0 16.0 0.00 0.00 0.00 37 1011.8
20260507023626 72 305 10.0 16.0 0.00 0.00 0.00 37 1011.8
20260507023532 72 316 9.0 16.0 0.00 0.00 0.00 37 1011.8
20260507023429 72 287 8.0 16.0 0.00 0.00 0.00 37 1011.8
20260507023336 72 303 8.0 16.0 0.00 0.00 0.00 36 1011.8
20260507023232 72 285 9.0 16.0 0.00 0.00 0.00 36 1011.8
20260507023136 72 325 9.0 16.0 0.00 0.00 0.00 36 1011.7
20260507023016 72 348 7.0 16.0 0.00 0.00 0.00 37 1011.7
20260507022923 72 316 7.0 16.0 0.00 0.00 0.00 37 1011.7
20260507022820 72 323 9.0 16.0 0.00 0.00 0.00 37 1011.7
20260507022748 72 314 10.0 16.0 0.00 0.00 0.00 37 1011.7
20260507022623 72 303 11.0 16.0 0.00 0.00 0.00 37 1011.7
20260507022530 72 297 12.0 16.0 0.00 0.00 0.00 36 1011.7
20260507022447 72 325 11.0 16.0 0.00 0.00 0.00 37 1011.7
20260507022331 72 316 9.0 16.0 0.00 0.00 0.00 37 1011.6
20260507022242 72 303 7.0 14.0 0.00 0.00 0.00 37 1011.6
20260507022140 72 292 7.0 14.0 0.00 0.00 0.00 37 1011.6
20260507022103 72 277 8.0 14.0 0.00 0.00 0.00 37 1011.7
20260507021940 72 312 8.0 14.0 0.00 0.00 0.00 37 1011.6
20260507021824 72 314 9.0 14.0 0.00 0.00 0.00 37 1011.6
20260507021723 72 321 9.0 14.0 0.00 0.00 0.00 37 1011.6
20260507021617 72 312 10.0 14.0 0.00 0.00 0.00 37 1011.6
20260507021528 72 304 10.0 14.0 0.00 0.00 0.00 37 1011.6
20260507021454 72 317 9.0 14.0 0.00 0.00 0.00 37 1011.6
20260507021329 72 333 9.0 14.0 0.00 0.00 0.00 37 1011.7
20260507021236 72 306 8.0 14.0 0.00 0.00 0.00 37 1011.6
20260507021133 72 300 7.0 14.0 0.00 0.00 0.00 37 1011.6
20260507021037 72 316 7.0 12.0 0.00 0.00 0.00 37 1011.5
20260507021003 72 330 7.0 12.0 0.00 0.00 0.00 37 1011.6
20260507020818 72 314 6.0 12.0 0.00 0.00 0.00 38 1011.6
20260507020720 72 296 7.0 12.0 0.00 0.00 0.00 38 1011.5
20260507020614 72 300 8.0 13.0 0.00 0.00 0.00 37 1011.5
20260507020521 72 266 8.0 16.0 0.00 0.00 0.00 37 1011.6
20260507020419 73 304 6.0 16.0 0.00 0.00 0.00 37 1011.6
20260507020325 73 333 6.0 16.0 0.00 0.00 0.00 37 1011.6
20260507020222 73 308 8.0 16.0 0.00 0.00 0.00 37 1011.6
20260507020149 73 346 8.0 16.0 0.00 0.00 0.00 37 1011.6
20260507020027 73 283 7.0 16.0 0.00 0.00 0.00 37 1011.6
20260507015931 73 312 9.0 16.0 0.00 0.00 0.00 36 1011.6
20260507015826 73 295 11.0 16.0 0.00 0.00 0.00 36 1011.6
20260507015753 73 310 10.0 16.0 0.00 0.00 0.00 36 1011.6
20260507015625 73 312 9.0 17.0 0.00 0.00 0.00 36 1011.6
20260507015530 73 325 9.0 17.0 0.00 0.00 0.00 36 1011.6
20260507015428 73 276 7.0 17.0 0.00 0.00 0.00 36 1011.6
20260507015319 73 294 6.0 17.0 0.00 0.00 0.00 36 1011.5
20260507015216 73 323 10.0 17.0 0.00 0.00 0.00 35 1011.5
20260507015143 73 299 11.0 17.0 0.00 0.00 0.00 35 1011.5
20260507015016 73 279 11.0 17.0 0.00 0.00 0.00 35 1011.5
20260507014920 73 283 10.0 17.0 0.00 0.00 0.00 35 1011.5
20260507014845 73 285 10.0 16.0 0.00 0.00 0.00 35 1011.4
20260507014720 73 302 12.0 16.0 0.00 0.00 0.00 35 1011.5
20260507014629 73 307 11.0 16.0 0.00 0.00 0.00 36 1011.5
20260507014529 74 299 10.0 16.0 0.00 0.00 0.00 36 1011.5
20260507014426 74 264 9.0 16.0 0.00 0.00 0.00 35 1011.6
20260507014332 74 280 10.0 16.0 0.00 0.00 0.00 35 1011.6
20260507014240 74 295 9.0 16.0 0.00 0.00 0.00 35 1011.6
20260507014115 74 314 10.0 16.0 0.00 0.00 0.00 35 1011.5
20260507014043 74 302 9.0 16.0 0.00 0.00 0.00 35 1011.6
20260507013918 74 304 9.0 16.0 0.00 0.00 0.00 35 1011.5
20260507013820 74 333 9.0 16.0 0.00 0.00 0.00 35 1011.6
20260507013725 74 307 8.0 16.0 0.00 0.00 0.00 35 1011.6
20260507013632 74 336 8.0 16.0 0.00 0.00 0.00 35 1011.6
20260507013527 74 308 7.0 14.0 0.00 0.00 0.00 36 1011.5
20260507013454 74 310 6.0 14.0 0.00 0.00 0.00 36 1011.4
20260507013348 74 310 6.0 14.0 0.00 0.00 0.00 36 1011.4
20260507013232 74 275 7.0 14.0 0.00 0.00 0.00 36 1011.4
20260507013128 74 291 7.0 14.0 0.00 0.00 0.00 36 1011.5
20260507013037 74 274 7.0 14.0 0.00 0.00 0.00 36 1011.5
20260507012914 74 310 8.0 14.0 0.00 0.00 0.00 36 1011.5
20260507012819 74 283 8.0 14.0 0.00 0.00 0.00 36 1011.5
20260507012719 74 280 7.0 15.0 0.00 0.00 0.00 36 1011.4
20260507012615 74 294 7.0 15.0 0.00 0.00 0.00 36 1011.5
20260507012522 74 283 8.0 15.0 0.00 0.00 0.00 36 1011.5
20260507012422 74 270 9.0 15.0 0.00 0.00 0.00 35 1011.4
20260507012329 74 275 10.0 15.0 0.00 0.00 0.00 36 1011.4
20260507012227 74 284 10.0 18.0 0.00 0.00 0.00 35 1011.6
20260507012135 74 262 10.0 18.0 0.00 0.00 0.00 35 1011.5
20260507012029 74 281 10.0 18.0 0.00 0.00 0.00 35 1011.5
20260507011926 74 286 10.0 18.0 0.00 0.00 0.00 35 1011.4
20260507011832 74 271 10.0 18.0 0.00 0.00 0.00 35 1011.4
20260507011735 74 285 10.0 18.0 0.00 0.00 0.00 34 1011.4
20260507011639 74 312 11.0 19.0 0.00 0.00 0.00 34 1011.4
20260507011515 74 285 11.0 19.0 0.00 0.00 0.00 34 1011.4
20260507011420 74 301 9.0 19.0 0.00 0.00 0.00 34 1011.4
20260507011318 74 283 10.0 19.0 0.00 0.00 0.00 34 1011.4
20260507011227 74 279 11.0 19.0 0.00 0.00 0.00 34 1011.4
20260507011123 74 318 11.0 19.0 0.00 0.00 0.00 34 1011.4
20260507011034 74 272 12.0 19.0 0.00 0.00 0.00 33 1011.4
20260507010932 74 288 14.0 19.0 0.00 0.00 0.00 33 1011.4
20260507010830 74 280 12.0 19.0 0.00 0.00 0.00 33 1011.5
20260507010736 75 258 11.0 18.0 0.00 0.00 0.00 33 1011.5
20260507010704 75 258 10.0 17.0 0.00 0.00 0.00 33 1011.4
20260507010518 75 283 11.0 17.0 0.00 0.00 0.00 33 1011.4
20260507010418 75 291 9.0 17.0 0.00 0.00 0.00 33 1011.4
20260507010342 75 256 7.0 17.0 0.00 0.00 0.00 33 1011.4
20260507010221 75 286 7.0 17.0 0.00 0.00 0.00 33 1011.4
20260507010116 75 306 11.0 18.0 0.00 0.00 0.00 33 1011.4
20260507010019 75 304 12.0 18.0 0.00 0.00 0.00 33 1011.5
20260507005916 75 285 12.0 18.0 0.00 0.00 0.00 32 1011.5
20260507005821 75 302 12.0 18.0 0.00 0.00 0.00 32 1011.5
20260507005723 75 275 12.0 18.0 0.00 0.00 0.00 32 1011.5
20260507005629 75 274 13.0 18.0 0.00 0.00 0.00 32 1011.5
20260507005523 75 279 12.0 18.0 0.00 0.00 0.00 31 1011.4
20260507005426 75 283 12.0 18.0 0.00 0.00 0.00 31 1011.4
20260507005323 75 296 12.0 18.0 0.00 0.00 0.00 31 1011.5
20260507005220 75 286 10.0 17.0 0.00 0.00 0.00 31 1011.4
20260507005128 75 277 11.0 17.0 0.00 0.00 0.00 31 1011.4
20260507005028 75 270 10.0 17.0 0.00 0.00 0.00 31 1011.4
20260507004934 75 276 10.0 18.0 0.00 0.00 0.00 30 1011.5
20260507004850 76 294 11.0 23.0 0.00 0.00 0.00 30 1011.4
20260507004733 76 291 11.0 23.0 0.00 0.00 0.00 30 1011.4
20260507004633 76 295 11.0 23.0 0.00 0.00 0.00 30 1011.3
20260507004537 76 262 11.0 23.0 0.00 0.00 0.00 30 1011.3
20260507004419 76 288 12.0 23.0 0.00 0.00 0.00 30 1011.4
20260507004316 76 285 11.0 23.0 0.00 0.00 0.00 29 1011.3
20260507004224 76 269 12.0 23.0 0.00 0.00 0.00 30 1011.4
20260507004118 76 282 14.0 23.0 0.00 0.00 0.00 30 1011.3
20260507004023 76 281 14.0 23.0 0.00 0.00 0.00 30 1011.3
20260507003920 76 256 13.0 23.0 0.00 0.00 0.00 30 1011.3
20260507003825 76 310 15.0 23.0 0.00 0.00 0.00 30 1011.4
20260507003722 77 288 16.0 23.0 0.00 0.00 0.00 30 1011.4
20260507003634 77 291 16.0 23.0 0.00 0.00 0.00 30 1011.4
20260507003530 77 300 14.0 21.0 0.00 0.00 0.00 29 1011.3
20260507003436 77 261 14.0 21.0 0.00 0.00 0.00 29 1011.3
20260507003334 77 272 12.0 21.0 0.00 0.00 0.00 30 1011.3
20260507003302 77 260 12.0 20.0 0.00 0.00 0.00 30 1011.3
20260507003135 77 281 12.0 22.0 0.00 0.00 0.00 30 1011.3
20260507003019 77 294 10.0 22.0 0.00 0.00 0.00 31 1011.3
20260507002920 77 278 10.0 22.0 0.00 0.00 0.00 31 1011.2
20260507002815 77 291 11.0 22.0 0.00 0.00 0.00 31 1011.2
20260507002723 77 277 12.0 22.0 0.00 0.00 0.00 31 1011.2
20260507002618 78 314 14.0 22.0 0.00 0.00 0.00 31 1011.2
20260507002524 78 281 15.0 24.0 0.00 0.00 0.00 31 1011.2
20260507002422 78 280 15.0 24.0 0.00 0.00 0.00 31 1011.2
20260507002322 78 324 15.0 24.0 0.00 0.00 0.00 31 1011.2
20260507002231 78 294 13.0 24.0 0.00 0.00 0.00 31 1011.2
20260507002124 78 293 13.0 24.0 0.00 0.00 0.00 31 1011.2
20260507002030 78 298 13.0 24.0 0.00 0.00 0.00 30 1011.2
20260507001926 78 283 14.0 24.0 0.00 0.00 0.00 30 1011.2
20260507001830 79 301 15.0 24.0 0.00 0.00 0.00 30 1011.2
20260507001754 79 296 14.0 24.0 0.00 0.00 0.00 30 1011.1
20260507001640 79 303 15.0 24.0 0.00 0.00 0.00 31 1011.1
20260507001536 79 272 13.0 19.0 0.00 0.00 0.00 31 1011.1
20260507001426 79 284 13.0 18.0 0.00 0.00 0.00 31 1011.1
20260507001322 79 296 11.0 18.0 0.00 0.00 0.00 31 1011.1
20260507001229 79 308 10.0 18.0 0.00 0.00 0.00 31 1011.1
20260507001123 79 273 12.0 23.0 0.00 0.00 0.00 30 1011.1
20260507001028 79 289 11.0 23.0 0.00 0.00 0.00 31 1011.1
20260507000924 79 265 10.0 23.0 0.00 0.00 0.00 30 1011.0
20260507000850 79 299 11.0 23.0 0.00 0.00 0.00 31 1011.0
20260507000737 79 265 11.0 23.0 0.00 0.00 0.00 31 1011.0
20260507000616 79 281 11.0 23.0 0.00 0.00 0.00 30 1011.0
20260507000543 79 246 13.0 23.0 0.00 0.00 0.00 30 1011.0
20260507000420 79 275 14.0 23.0 0.00 0.00 0.00 29 1011.0
20260507000325 79 264 16.0 24.0 0.00 0.00 0.00 29 1011.1
20260507000224 79 307 16.0 23.0 0.00 0.00 0.00 30 1011.1
20260507000117 79 294 14.0 23.0 0.00 0.00 0.00 29 1011.0
20260507000023 79 258 14.0 21.0 0.00 0.00 0.00 29 1011.0
20260506235924 79 283 12.0 21.0 0.00 0.00 0.00 29 1010.9
20260506235830 79 291 10.0 21.0 0.00 0.00 0.00 29 1010.9
20260506235749 79 295 12.0 21.0 0.00 0.00 0.00 28 1011.0
20260506235613 79 303 13.0 21.0 0.00 0.00 0.00 28 1011.0
20260506235529 79 309 12.0 21.0 0.00 0.00 0.00 28 1011.0
20260506235435 79 294 11.0 21.0 0.00 0.00 0.00 28 1011.0
20260506235315 79 275 13.0 26.0 0.00 0.00 0.00 29 1011.0
20260506235241 79 288 14.0 26.0 0.00 0.00 0.00 29 1011.0
20260506235138 79 281 15.0 26.0 0.00 0.00 0.00 28 1011.0
20260506235014 79 253 14.0 26.0 0.00 0.00 0.00 27 1011.0
20260506234920 79 287 14.0 26.0 0.00 0.00 0.00 28 1010.9
20260506234817 80 284 16.0 26.0 0.00 0.00 0.00 28 1011.0
20260506234725 80 264 15.0 26.0 0.00 0.00 0.00 28 1010.9
20260506234618 80 302 13.0 26.0 0.00 0.00 0.00 29 1010.9
20260506234548 80 260 11.0 26.0 0.00 0.00 0.00 29 1010.9
20260506234432 80 308 11.0 25.0 0.00 0.00 0.00 30 1010.9
20260506234328 80 269 14.0 25.0 0.00 0.00 0.00 31 1010.8
20260506234234 80 289 13.0 25.0 0.00 0.00 0.00 32 1010.9
20260506234132 80 273 12.0 22.0 0.00 0.00 0.00 33 1010.9
20260506234028 80 273 14.0 22.0 0.00 0.00 0.00 33 1010.8
20260506233934 80 283 13.0 22.0 0.00 0.00 0.00 33 1010.8
20260506233815 80 283 15.0 26.0 0.00 0.00 0.00 33 1010.8
20260506233743 80 299 16.0 26.0 0.00 0.00 0.00 33 1010.8
20260506233618 80 296 11.0 26.0 0.00 0.00 0.00 33 1010.9
20260506233536 80 293 10.0 26.0 0.00 0.00 0.00 34 1010.8
20260506233420 80 270 12.0 26.0 0.00 0.00 0.00 33 1010.9
20260506233316 80 343 14.0 26.0 0.00 0.00 0.00 33 1010.9
20260506233227 80 288 14.0 26.0 0.00 0.00 0.00 33 1010.9
20260506233123 80 338 16.0 26.0 0.00 0.00 0.00 33 1010.9
20260506233028 80 284 17.0 26.0 0.00 0.00 0.00 33 1010.9
20260506232925 81 291 14.0 27.0 0.00 0.00 0.00 32 1010.8
20260506232820 81 314 13.0 20.0 0.00 0.00 0.00 32 1010.8
20260506232727 81 296 13.0 20.0 0.00 0.00 0.00 31 1010.8
20260506232654 81 300 13.0 20.0 0.00 0.00 0.00 31 1010.8
20260506232532 81 317 14.0 20.0 0.00 0.00 0.00 31 1010.8
20260506232429 81 303 15.0 20.0 0.00 0.00 0.00 30 1010.8
20260506232334 81 310 14.0 20.0 0.00 0.00 0.00 30 1010.8
20260506232306 82 283 13.0 20.0 0.00 0.00 0.00 30 1010.8
20260506232118 82 280 13.0 20.0 0.00 0.00 0.00 30 1010.8
20260506232015 82 264 13.0 20.0 0.00 0.00 0.00 30 1010.7
20260506231923 82 268 14.0 20.0 0.00 0.00 0.00 30 1010.7
20260506231843 81 261 15.0 20.0 0.00 0.00 0.00 30 1010.8
20260506231728 81 296 12.0 20.0 0.00 0.00 0.00 30 1010.8
20260506231620 81 258 12.0 19.0 0.00 0.00 0.00 29 1010.7
20260506231526 81 307 14.0 19.0 0.00 0.00 0.00 29 1010.7
20260506231423 82 277 13.0 24.0 0.00 0.00 0.00 29 1010.7
20260506231328 82 282 12.0 24.0 0.00 0.00 0.00 28 1010.7
20260506231225 82 294 12.0 24.0 0.00 0.00 0.00 28 1010.7
20260506231138 82 287 11.0 24.0 0.00 0.00 0.00 28 1010.7
20260506231031 82 308 10.0 24.0 0.00 0.00 0.00 28 1010.7
20260506230927 82 275 11.0 24.0 0.00 0.00 0.00 28 1010.7
20260506230834 82 293 13.0 24.0 0.00 0.00 0.00 28 1010.7
20260506230802 82 280 14.0 24.0 0.00 0.00 0.00 28 1010.8
20260506230615 82 269 14.0 24.0 0.00 0.00 0.00 29 1010.8
20260506230532 82 238 13.0 24.0 0.00 0.00 0.00 28 1010.8
20260506230422 82 229 12.0 20.0 0.00 0.00 0.00 28 1010.7
20260506230317 82 252 12.0 19.0 0.00 0.00 0.00 28 1010.7
20260506230242 82 269 11.0 17.0 0.00 0.00 0.00 28 1010.7
20260506230129 82 292 10.0 16.0 0.00 0.00 0.00 28 1010.7
20260506230024 82 308 11.0 16.0 0.00 0.00 0.00 28 1010.7
20260506225931 82 279 11.0 20.0 0.00 0.00 0.00 28 1010.7
20260506225827 82 285 8.0 20.0 0.00 0.00 0.00 29 1010.6
20260506225736 82 272 8.0 25.0 0.00 0.00 0.00 28 1010.7
20260506225614 83 291 10.0 25.0 0.00 0.00 0.00 28 1010.7
20260506225520 83 319 11.0 25.0 0.00 0.00 0.00 28 1010.8
20260506225425 83 291 11.0 25.0 0.00 0.00 0.00 28 1010.7
20260506225342 83 285 11.0 25.0 0.00 0.00 0.00 28 1010.7
20260506225228 83 294 12.0 25.0 0.00 0.00 0.00 28 1010.7
20260506225122 83 265 13.0 25.0 0.00 0.00 0.00 27 1010.8
20260506225028 84 247 13.0 25.0 0.00 0.00 0.00 28 1010.8
20260506224924 84 283 13.0 25.0 0.00 0.00 0.00 27 1010.7
20260506224855 84 234 11.0 25.0 0.00 0.00 0.00 28 1010.7
20260506224730 84 271 10.0 21.0 0.00 0.00 0.00 28 1010.7
20260506224639 84 260 12.0 21.0 0.00 0.00 0.00 28 1010.7
20260506224515 84 286 11.0 21.0 0.00 0.00 0.00 27 1010.8
20260506224431 84 271 9.0 17.0 0.00 0.00 0.00 27 1010.8
20260506224336 84 283 10.0 17.0 0.00 0.00 0.00 27 1010.8
20260506224304 84 256 12.0 17.0 0.00 0.00 0.00 27 1010.8
20260506224123 84 256 11.0 17.0 0.00 0.00 0.00 27 1010.7
20260506224020 84 283 10.0 17.0 0.00 0.00 0.00 27 1010.7
20260506223927 84 284 9.0 17.0 0.00 0.00 0.00 28 1010.7
20260506223822 84 272 7.0 17.0 0.00 0.00 0.00 28 1010.8
20260506223728 84 282 9.0 17.0 0.00 0.00 0.00 27 1010.8
20260506223622 84 292 11.0 17.0 0.00 0.00 0.00 27 1010.7
20260506223529 84 321 11.0 17.0 0.00 0.00 0.00 28 1010.7
20260506223430 84 287 12.0 17.0 0.00 0.00 0.00 27 1010.7
20260506223314 84 311 10.0 17.0 0.00 0.00 0.00 27 1010.8
20260506223233 84 256 9.0 17.0 0.00 0.00 0.00 27 1010.8
20260506223117 84 295 8.0 16.0 0.00 0.00 0.00 27 1010.8
20260506223014 84 242 10.0 16.0 0.00 0.00 0.00 27 1010.9
20260506222937 84 304 10.0 16.0 0.00 0.00 0.00 27 1010.9
20260506222834 85 286 10.0 16.0 0.00 0.00 0.00 27 1010.8
20260506222737 85 290 11.0 16.0 0.00 0.00 0.00 27 1010.9
20260506222629 85 269 12.0 16.0 0.00 0.00 0.00 27 1010.9
20260506222544 85 307 10.0 15.0 0.00 0.00 0.00 27 1010.9
20260506222429 85 283 8.0 15.0 0.00 0.00 0.00 28 1010.9
20260506222355 85 289 7.0 15.0 0.00 0.00 0.00 27 1010.9
20260506222232 84 317 7.0 15.0 0.00 0.00 0.00 27 1010.8
20260506222129 84 302 8.0 15.0 0.00 0.00 0.00 27 1010.9
20260506222054 84 311 9.0 16.0 0.00 0.00 0.00 28 1010.9
20260506221938 84 298 9.0 16.0 0.00 0.00 0.00 28 1010.9
20260506221820 84 282 9.0 16.0 0.00 0.00 0.00 27 1010.8
20260506221719 84 299 9.0 16.0 0.00 0.00 0.00 27 1010.8
20260506221624 84 301 10.0 16.0 0.00 0.00 0.00 28 1010.8
20260506221522 84 285 9.0 16.0 0.00 0.00 0.00 28 1010.9
20260506221419 84 275 10.0 16.0 0.00 0.00 0.00 27 1010.9
20260506221326 84 271 12.0 19.0 0.00 0.00 0.00 27 1010.9
20260506221228 84 299 12.0 20.0 0.00 0.00 0.00 28 1010.9
20260506221135 84 312 9.0 20.0 0.00 0.00 0.00 27 1010.8
20260506221029 84 287 8.0 20.0 0.00 0.00 0.00 27 1010.9
20260506220926 84 307 10.0 20.0 0.00 0.00 0.00 27 1010.8
20260506220833 84 293 11.0 20.0 0.00 0.00 0.00 28 1010.9
20260506220759 84 317 10.0 21.0 0.00 0.00 0.00 28 1010.8
20260506220614 84 289 10.0 21.0 0.00 0.00 0.00 28 1010.8
20260506220516 84 275 12.0 21.0 0.00 0.00 0.00 27 1010.8
20260506220423 84 316 13.0 21.0 0.00 0.00 0.00 27 1010.9
20260506220320 84 285 12.0 21.0 0.00 0.00 0.00 27 1010.8
20260506220219 84 275 12.0 21.0 0.00 0.00 0.00 28 1010.8
20260506220124 84 235 14.0 21.0 0.00 0.00 0.00 27 1010.8
20260506220021 85 273 15.0 21.0 0.00 0.00 0.00 27 1010.8
20260506215930 85 275 14.0 21.0 0.00 0.00 0.00 27 1010.8
20260506215825 85 287 13.0 21.0 0.00 0.00 0.00 27 1010.8
20260506215751 85 258 12.0 18.0 0.00 0.00 0.00 27 1010.8
20260506215638 84 277 12.0 18.0 0.00 0.00 0.00 27 1010.8
20260506215514 85 323 9.0 18.0 0.00 0.00 0.00 26 1010.8
20260506215431 85 262 8.0 18.0 0.00 0.00 0.00 26 1010.8
20260506215315 85 334 9.0 16.0 0.00 0.00 0.00 26 1010.8
20260506215242 85 298 9.0 16.0 0.00 0.00 0.00 26 1010.8
20260506215122 85 303 8.0 16.0 0.00 0.00 0.00 26 1010.7
20260506215019 85 276 10.0 16.0 0.00 0.00 0.00 26 1010.8
20260506214946 85 289 10.0 16.0 0.00 0.00 0.00 26 1010.8
20260506214819 85 335 9.0 16.0 0.00 0.00 0.00 25 1010.8
20260506214727 85 303 10.0 16.0 0.00 0.00 0.00 25 1010.8
20260506214643 85 302 9.0 16.0 0.00 0.00 0.00 25 1010.8
20260506214527 85 326 5.0 20.0 0.00 0.00 0.00 25 1010.8
20260506214429 85 360 5.0 20.0 0.00 0.00 0.00 26 1010.7
20260506214336 85 308 4.0 20.0 0.00 0.00 0.00 25 1010.8
20260506214221 85 229 3.0 20.0 0.00 0.00 0.00 24 1010.8
20260506214116 85 291 5.0 20.0 0.00 0.00 0.00 24 1010.8
20260506214014 85 294 9.0 21.0 0.00 0.00 0.00 24 1010.9
20260506213919 85 300 12.0 21.0 0.00 0.00 0.00 25 1010.8
20260506213845 85 274 13.0 21.0 0.00 0.00 0.00 26 1010.8
20260506213721 85 221 14.0 21.0 0.00 0.00 0.00 26 1010.7
20260506213633 85 254 13.0 21.0 0.00 0.00 0.00 26 1010.7
20260506213528 85 262 12.0 21.0 0.00 0.00 0.00 26 1010.7
20260506213435 85 249 13.0 21.0 0.00 0.00 0.00 26 1010.8
20260506213352 85 247 15.0 21.0 0.00 0.00 0.00 26 1010.7
20260506213216 85 239 14.0 20.0 0.00 0.00 0.00 27 1010.7
20260506213134 85 231 13.0 20.0 0.00 0.00 0.00 27 1010.7
20260506213019 85 241 12.0 20.0 0.00 0.00 0.00 26 1010.8
20260506212921 85 297 13.0 20.0 0.00 0.00 0.00 26 1010.8
20260506212818 85 262 12.0 20.0 0.00 0.00 0.00 27 1010.9
20260506212727 85 269 11.0 20.0 0.00 0.00 0.00 27 1010.9
20260506212623 85 281 11.0 18.0 0.00 0.00 0.00 27 1010.8
20260506212549 85 239 11.0 18.0 0.00 0.00 0.00 27 1010.8
20260506212453 85 232 12.0 18.0 0.00 0.00 0.00 26 1010.9
20260506212400 85 233 12.0 18.0 0.00 0.00 0.00 26 1010.8
20260506212237 85 263 11.0 18.0 0.00 0.00 0.00 27 1010.8
20260506212115 85 258 12.0 18.0 0.00 0.00 0.00 27 1010.8
20260506212020 85 240 12.0 18.0 0.00 0.00 0.00 27 1010.8
20260506211945 85 264 12.0 18.0 0.00 0.00 0.00 26 1010.8
20260506211819 85 273 10.0 18.0 0.00 0.00 0.00 26 1010.8
20260506211718 85 280 9.0 18.0 0.00 0.00 0.00 25 1010.9
20260506211643 85 298 11.0 18.0 0.00 0.00 0.00 26 1010.9
20260506211529 84 258 10.0 18.0 0.00 0.00 0.00 27 1010.9
20260506211425 84 238 8.0 14.0 0.00 0.00 0.00 25 1010.9
20260506211324 84 285 9.0 12.0 0.00 0.00 0.00 25 1010.8
20260506211230 84 257 8.0 12.0 0.00 0.00 0.00 25 1010.8
20260506211129 84 138 6.0 12.0 0.00 0.00 0.00 24 1010.7
20260506211033 84 309 6.0 9.0 0.00 0.00 0.00 24 1010.8
20260506210931 84 277 6.0 9.0 0.00 0.00 0.00 25 1010.8
20260506210828 83 274 4.0 8.0 0.00 0.00 0.00 26 1010.9
20260506210721 83 283 3.0 9.0 0.00 0.00 0.00 24 1010.8
20260506210616 83 314 2.0 9.0 0.00 0.00 0.00 24 1010.9
20260506210514 83 314 3.0 9.0 0.00 0.00 0.00 24 1010.9
20260506210440 83 314 3.0 9.0 0.00 0.00 0.00 24 1010.9
20260506210326 83 302 2.0 9.0 0.00 0.00 0.00 25 1010.9
20260506210222 83 283 1.0 9.0 0.00 0.00 0.00 25 1010.9
20260506210118 83 286 3.0 9.0 0.00 0.00 0.00 24 1011.0
20260506210028 83 286 5.0 9.0 0.00 0.00 0.00 24 1011.0
20260506205926 83 316 6.0 9.0 0.00 0.00 0.00 24 1011.0
20260506205832 83 291 5.0 9.0 0.00 0.00 0.00 24 1010.9
20260506205731 83 318 4.0 9.0 0.00 0.00 0.00 24 1010.9
20260506205615 83 5 5.0 9.0 0.00 0.00 0.00 25 1011.0
20260506205531 83 29 6.0 9.0 0.00 0.00 0.00 25 1011.0
20260506205436 83 5 6.0 9.0 0.00 0.00 0.00 25 1010.9
20260506205317 83 356 6.0 9.0 0.00 0.00 0.00 25 1011.0
20260506205216 84 15 6.0 9.0 0.00 0.00 0.00 25 1010.9
20260506205121 84 354 5.0 9.0 0.00 0.00 0.00 26 1011.0
20260506205017 84 354 5.0 8.0 0.00 0.00 0.00 25 1010.9
20260506204923 84 5 5.0 9.0 0.00 0.00 0.00 25 1010.9
20260506204850 84 19 4.0 10.0 0.00 0.00 0.00 25 1010.9
20260506204726 84 10 3.0 10.0 0.00 0.00 0.00 25 1010.9
20260506204625 84 25 2.0 10.0 0.00 0.00 0.00 25 1010.9
20260506204529 84 5 2.0 10.0 0.00 0.00 0.00 24 1010.9
20260506204455 84 5 2.0 10.0 0.00 0.00 0.00 24 1010.9
20260506204351 84 60 2.0 10.0 0.00 0.00 0.00 24 1010.9
20260506204238 84 53 4.0 10.0 0.00 0.00 0.00 24 1011.0
20260506204113 84 50 6.0 10.0 0.00 0.00 0.00 24 1011.0
20260506204019 84 40 6.0 10.0 0.00 0.00 0.00 24 1011.0
20260506203921 84 360 6.0 10.0 0.00 0.00 0.00 24 1011.0
20260506203818 84 5 4.0 8.0 0.00 0.00 0.00 24 1011.0
20260506203721 85 344 3.0 12.0 0.00 0.00 0.00 23 1011.1
20260506203617 85 308 4.0 15.0 0.00 0.00 0.00 23 1011.1
20260506203521 85 315 3.0 15.0 0.00 0.00 0.00 23 1011.1
20260506203419 85 299 2.0 15.0 0.00 0.00 0.00 23 1011.1
20260506203325 85 180 2.0 15.0 0.00 0.00 0.00 24 1011.1